Wetterdaten: Dienstag, 03.04.2018
Datum Zeit Temp. Aussen Temp. o. S. +5cm Feuchte Auss BlattFeu 1 Luftdruck Regen Sonnenschein Regendauer Solar Windben Empfang
03.04.2018 00:00 9,7 C 7,8 C 7,2 C 87 % 0 lf 999,4 hPa 0,0 l/m 0 min 2 min 0 W/m 11,3 km/h (2 Bft) 95,74 %
03.04.2018 00:02 9,7 C 7,8 C 7,2 C 87 % 0 lf 999,4 hPa 0,0 l/m 0 min 2 min 0 W/m 11,3 km/h (2 Bft) 14,29 %
03.04.2018 00:04 9,7 C 7,8 C 7,2 C 87 % 0 lf 999,4 hPa 0,0 l/m 0 min 2 min 0 W/m 13,5 km/h (3 Bft) 70,59 %
03.04.2018 00:08 9,7 C 7,8 C 7,2 C 87 % 0 lf 999,4 hPa 0,0 l/m 0 min 4 min 0 W/m 13,5 km/h (3 Bft) 95,40 %
03.04.2018 00:10 9,6 C 7,8 C 7,2 C 88 % 0 lf 999,3 hPa 0,0 l/m 0 min 2 min 0 W/m 13,5 km/h (3 Bft) 95,65 %
03.04.2018 00:12 9,6 C 7,8 C 7,2 C 88 % 0 lf 999,2 hPa 0,0 l/m 0 min 2 min 0 W/m 9,0 km/h (2 Bft) 95,74 %
03.04.2018 00:14 9,6 C 7,8 C 7,2 C 88 % 0 lf 999,2 hPa 0,0 l/m 0 min 2 min 0 W/m 13,5 km/h (3 Bft) 93,62 %
03.04.2018 00:16 9,5 C 7,8 C 7,2 C 88 % 0 lf 999,2 hPa 0,0 l/m 0 min 0 min 0 W/m 11,3 km/h (2 Bft) 96,30 %
03.04.2018 00:18 9,5 C 7,8 C 7,2 C 88 % 0 lf 999,3 hPa 0,0 l/m 0 min 0 min 0 W/m 13,5 km/h (3 Bft) 95,74 %
03.04.2018 00:20 9,5 C 7,8 C 7,2 C 88 % 0 lf 999,2 hPa 0,0 l/m 0 min 0 min 0 W/m 13,5 km/h (3 Bft) 93,62 %
03.04.2018 00:22 9,4 C 7,8 C 7,2 C 88 % 0 lf 999,2 hPa 0,0 l/m 0 min 0 min 0 W/m 11,3 km/h (2 Bft) 97,83 %
03.04.2018 00:24 9,4 C 7,8 C 7,2 C 89 % 0 lf 999,2 hPa 0,0 l/m 0 min 0 min 0 W/m 9,0 km/h (2 Bft) 100,00 %
03.04.2018 00:26 9,4 C 7,8 C 7,2 C 89 % 0 lf 999,2 hPa 0,0 l/m 0 min 0 min 0 W/m 11,3 km/h (2 Bft) 97,87 %
03.04.2018 00:28 9,4 C 7,8 C 7,2 C 89 % 0 lf 999,2 hPa 0,0 l/m 0 min 0 min 0 W/m 9,0 km/h (2 Bft) 100,00 %
03.04.2018 00:30 9,4 C 8,3 C 7,2 C 89 % 0 lf 999,2 hPa 0,0 l/m 0 min 0 min 0 W/m 13,5 km/h (3 Bft) 100,00 %
03.04.2018 00:32 9,4 C 8,3 C 7,2 C 89 % 0 lf 999,2 hPa 0,0 l/m 0 min 0 min 0 W/m 11,3 km/h (2 Bft) 100,00 %
03.04.2018 00:34 9,4 C 8,3 C 7,2 C 89 % 0 lf 999,2 hPa 0,0 l/m 0 min 0 min 0 W/m 13,5 km/h (3 Bft) 97,92 %
03.04.2018 00:36 9,4 C 8,3 C 7,2 C 89 % 0 lf 999,3 hPa 0,0 l/m 0 min 0 min 0 W/m 13,5 km/h (3 Bft) 100,00 %
03.04.2018 00:38 9,4 C 8,3 C 7,2 C 89 % 0 lf 999,2 hPa 0,0 l/m 0 min 0 min 0 W/m 15,8 km/h (3 Bft) 100,00 %
03.04.2018 00:40 9,4 C 8,3 C 7,2 C 89 % 0 lf 999,2 hPa 0,0 l/m 0 min 0 min 0 W/m 18,0 km/h (3 Bft) 95,74 %
03.04.2018 00:42 9,4 C 8,3 C 7,2 C 89 % 0 lf 999,3 hPa 0,0 l/m 0 min 0 min 0 W/m 18,0 km/h (3 Bft) 97,87 %
03.04.2018 00:44 9,4 C 8,9 C 7,2 C 89 % 0 lf 999,3 hPa 0,0 l/m 0 min 0 min 0 W/m 20,3 km/h (4 Bft) 100,00 %
03.04.2018 00:46 9,5 C 8,9 C 7,8 C 89 % 0 lf 999,4 hPa 0,0 l/m 0 min 0 min 0 W/m 15,8 km/h (3 Bft) 93,62 %
03.04.2018 00:48 9,5 C 9,4 C 7,8 C 88 % 0 lf 999,4 hPa 0,0 l/m 0 min 0 min 0 W/m 11,3 km/h (2 Bft) 100,00 %
03.04.2018 00:50 9,6 C 9,4 C 7,2 C 88 % 2 lf 999,5 hPa 0,0 l/m 0 min 2 min 0 W/m 15,8 km/h (3 Bft) 100,00 %
03.04.2018 00:52 9,6 C 8,9 C 7,2 C 88 % 4 lf 999,5 hPa 0,0 l/m 0 min 2 min 0 W/m 15,8 km/h (3 Bft) 100,00 %
03.04.2018 00:54 9,7 C 8,3 C 7,2 C 88 % 4 lf 999,4 hPa 0,0 l/m 0 min 2 min 0 W/m 20,3 km/h (4 Bft) 97,87 %
03.04.2018 00:56 9,7 C 8,3 C 7,2 C 88 % 3 lf 999,4 hPa 0,0 l/m 0 min 2 min 0 W/m 11,3 km/h (2 Bft) 100,00 %
03.04.2018 00:58 9,8 C 8,3 C 7,2 C 87 % 1 lf 999,4 hPa 0,0 l/m 0 min 2 min 0 W/m 15,8 km/h (3 Bft) 100,00 %
03.04.2018 01:00 9,8 C 8,9 C 7,2 C 87 % 0 lf 999,4 hPa 0,0 l/m 0 min 0 min 0 W/m 18,0 km/h (3 Bft) 97,87 %
03.04.2018 01:02 9,9 C 8,9 C 7,2 C 87 % 0 lf 999,3 hPa 0,0 l/m 0 min 0 min 0 W/m 13,5 km/h (3 Bft) 97,87 %
03.04.2018 01:04 9,9 C 9,4 C 7,2 C 87 % 0 lf 999,3 hPa 0,0 l/m 0 min 0 min 0 W/m 15,8 km/h (3 Bft) 95,74 %
03.04.2018 01:06 9,9 C 9,4 C 7,2 C 87 % 0 lf 999,4 hPa 0,0 l/m 0 min 2 min 0 W/m 22,5 km/h (4 Bft) 95,74 %
03.04.2018 01:08 10,0 C 10,0 C 7,8 C 87 % 0 lf 999,3 hPa 0,0 l/m 0 min 2 min 0 W/m 15,8 km/h (3 Bft) 97,83 %
03.04.2018 01:10 10,1 C 10,0 C 7,8 C 86 % 0 lf 999,3 hPa 0,0 l/m 0 min 0 min 0 W/m 18,0 km/h (3 Bft) 97,87 %
03.04.2018 01:12 10,2 C 10,6 C 7,8 C 85 % 0 lf 999,4 hPa 0,0 l/m 0 min 2 min 0 W/m 24,8 km/h (4 Bft) 97,87 %
03.04.2018 01:14 10,3 C 10,6 C 7,8 C 85 % 0 lf 999,2 hPa 0,0 l/m 0 min 2 min 0 W/m 27,0 km/h (4 Bft) 97,87 %
03.04.2018 01:16 10,4 C 11,1 C 8,3 C 85 % 0 lf 999,2 hPa 0,0 l/m 0 min 2 min 0 W/m 31,5 km/h (5 Bft) 97,87 %
03.04.2018 01:18 10,6 C 11,1 C 8,3 C 84 % 0 lf 999,2 hPa 0,0 l/m 0 min 2 min 0 W/m 27,0 km/h (4 Bft) 95,74 %
03.04.2018 01:20 10,7 C 11,1 C 8,3 C 84 % 0 lf 999,2 hPa 0,0 l/m 0 min 2 min 0 W/m 24,8 km/h (4 Bft) 93,48 %
03.04.2018 01:22 10,9 C 11,7 C 8,3 C 83 % 0 lf 999,3 hPa 0,0 l/m 0 min 0 min 0 W/m 31,5 km/h (5 Bft) 97,87 %
03.04.2018 01:24 11,1 C 11,7 C 8,9 C 83 % 0 lf 999,3 hPa 0,0 l/m 0 min 2 min 0 W/m 27,0 km/h (4 Bft) 97,87 %
03.04.2018 01:26 11,2 C 11,7 C 8,9 C 82 % 0 lf 999,3 hPa 0,0 l/m 0 min 2 min 0 W/m 31,5 km/h (5 Bft) 97,87 %
03.04.2018 01:28 11,3 C 11,7 C 8,9 C 82 % 0 lf 999,2 hPa 0,0 l/m 0 min 2 min 0 W/m 22,5 km/h (4 Bft) 97,87 %
03.04.2018 01:30 11,4 C 11,7 C 8,9 C 82 % 0 lf 999,3 hPa 0,0 l/m 0 min 0 min 0 W/m 27,0 km/h (4 Bft) 95,74 %
03.04.2018 01:32 11,5 C 11,7 C 8,9 C 81 % 2 lf 999,4 hPa 0,0 l/m 0 min 0 min 0 W/m 33,8 km/h (5 Bft) 95,65 %
03.04.2018 01:34 11,6 C 11,7 C 8,9 C 81 % 0 lf 999,3 hPa 0,0 l/m 0 min 2 min 0 W/m 29,3 km/h (5 Bft) 95,74 %
03.04.2018 01:36 11,7 C 11,7 C 8,9 C 81 % 0 lf 999,4 hPa 0,0 l/m 0 min 2 min 0 W/m 29,3 km/h (5 Bft) 91,49 %
03.04.2018 01:38 11,7 C 11,7 C 8,9 C 81 % 1 lf 999,4 hPa 0,0 l/m 0 min 2 min 0 W/m 27,0 km/h (4 Bft) 95,74 %
03.04.2018 01:40 11,7 C 11,7 C 8,9 C 81 % 0 lf 999,4 hPa 0,0 l/m 0 min 0 min 0 W/m 24,8 km/h (4 Bft) 95,74 %
03.04.2018 01:42 11,8 C 11,7 C 8,9 C 81 % 1 lf 999,4 hPa 0,2 l/m 0 min 2 min 0 W/m 36,0 km/h (5 Bft) 95,74 %
03.04.2018 01:44 11,8 C 11,1 C 8,9 C 81 % 0 lf 999,4 hPa 0,0 l/m 0 min 2 min 0 W/m 27,0 km/h (4 Bft) 93,48 %
03.04.2018 01:46 11,8 C 11,1 C 8,9 C 81 % 0 lf 999,5 hPa 0,0 l/m 0 min 2 min 0 W/m 33,8 km/h (5 Bft) 91,49 %
03.04.2018 01:48 11,8 C 11,1 C 8,9 C 81 % 0 lf 999,5 hPa 0,0 l/m 0 min 2 min 0 W/m 31,5 km/h (5 Bft) 93,62 %
03.04.2018 01:50 11,8 C 11,7 C 8,9 C 82 % 0 lf 999,4 hPa 0,0 l/m 0 min 0 min 0 W/m 36,0 km/h (5 Bft) 91,49 %
03.04.2018 01:52 11,8 C 11,7 C 8,9 C 82 % 0 lf 999,5 hPa 0,0 l/m 0 min 0 min 0 W/m 31,5 km/h (5 Bft) 91,49 %
03.04.2018 01:54 11,8 C 11,7 C 8,9 C 82 % 0 lf 999,4 hPa 0,0 l/m 0 min 0 min 0 W/m 29,3 km/h (5 Bft) 93,62 %
03.04.2018 01:56 11,8 C 11,1 C 8,9 C 82 % 0 lf 999,4 hPa 0,0 l/m 0 min 0 min 0 W/m 24,8 km/h (4 Bft) 93,48 %
03.04.2018 01:58 11,8 C 11,1 C 8,9 C 82 % 0 lf 999,5 hPa 0,0 l/m 0 min 0 min 0 W/m 31,5 km/h (5 Bft) 89,36 %
03.04.2018 02:00 11,7 C 11,1 C 8,9 C 82 % 1 lf 999,5 hPa 0,0 l/m 0 min 2 min 0 W/m 27,0 km/h (4 Bft) 95,74 %
03.04.2018 02:02 11,7 C 11,1 C 8,9 C 83 % 2 lf 999,5 hPa 0,0 l/m 0 min 2 min 0 W/m 24,8 km/h (4 Bft) 93,75 %
03.04.2018 02:04 11,7 C 11,1 C 8,9 C 83 % 0 lf 999,6 hPa 0,0 l/m 0 min 2 min 0 W/m 29,3 km/h (5 Bft) 95,74 %
03.04.2018 02:06 11,7 C 11,1 C 8,3 C 83 % 1 lf 999,5 hPa 0,0 l/m 0 min 2 min 0 W/m 24,8 km/h (4 Bft) 93,48 %
03.04.2018 02:08 11,6 C 11,1 C 8,3 C 84 % 1 lf 999,5 hPa 0,0 l/m 0 min 2 min 0 W/m 27,0 km/h (4 Bft) 93,62 %
03.04.2018 02:10 11,6 C 11,1 C 8,3 C 84 % 1 lf 999,6 hPa 0,0 l/m 0 min 2 min 0 W/m 24,8 km/h (4 Bft) 95,74 %
03.04.2018 02:12 11,6 C 10,6 C 8,3 C 84 % 2 lf 999,5 hPa 0,0 l/m 0 min 2 min 0 W/m 20,3 km/h (4 Bft) 93,62 %
03.04.2018 02:14 11,5 C 10,6 C 8,3 C 84 % 3 lf 999,5 hPa 0,0 l/m 0 min 2 min 0 W/m 36,0 km/h (5 Bft) 93,62 %
03.04.2018 02:16 11,5 C 11,1 C 8,3 C 85 % 0 lf 999,5 hPa 0,0 l/m 0 min 2 min 0 W/m 29,3 km/h (5 Bft) 95,74 %
03.04.2018 02:18 11,4 C 10,6 C 8,3 C 85 % 0 lf 999,4 hPa 0,0 l/m 0 min 2 min 0 W/m 20,3 km/h (4 Bft) 97,83 %
03.04.2018 02:20 11,4 C 10,6 C 8,3 C 85 % 0 lf 999,5 hPa 0,0 l/m 0 min 0 min 0 W/m 22,5 km/h (4 Bft) 93,62 %
03.04.2018 02:22 11,4 C 10,6 C 8,3 C 85 % 0 lf 999,4 hPa 0,0 l/m 0 min 0 min 0 W/m 22,5 km/h (4 Bft) 95,74 %
03.04.2018 02:24 11,4 C 10,6 C 8,3 C 85 % 0 lf 999,4 hPa 0,0 l/m 0 min 0 min 0 W/m 20,3 km/h (4 Bft) 97,67 %
03.04.2018 02:26 11,3 C 10,6 C 8,3 C 85 % 0 lf 999,4 hPa 0,0 l/m 0 min 0 min 0 W/m 20,3 km/h (4 Bft) 100,00 %
03.04.2018 02:28 11,3 C 10,6 C 8,3 C 86 % 0 lf 999,4 hPa 0,0 l/m 0 min 0 min 0 W/m 27,0 km/h (4 Bft) 97,87 %
03.04.2018 02:30 11,3 C 10,6 C 8,3 C 86 % 0 lf 999,4 hPa 0,0 l/m 0 min 0 min 0 W/m 18,0 km/h (3 Bft) 100,00 %
03.04.2018 02:32 11,3 C 10,6 C 8,3 C 86 % 0 lf 999,4 hPa 0,0 l/m 0 min 2 min 0 W/m 15,8 km/h (3 Bft) 100,00 %
03.04.2018 02:34 11,3 C 10,6 C 8,3 C 86 % 0 lf 999,4 hPa 0,0 l/m 0 min 0 min 0 W/m 20,3 km/h (4 Bft) 100,00 %
03.04.2018 02:36 11,3 C 10,6 C 8,9 C 86 % 0 lf 999,4 hPa 0,0 l/m 0 min 0 min 0 W/m 24,8 km/h (4 Bft) 97,87 %
03.04.2018 02:38 11,2 C 10,6 C 8,9 C 86 % 0 lf 999,5 hPa 0,0 l/m 0 min 0 min 0 W/m 27,0 km/h (4 Bft) 98,00 %
03.04.2018 02:40 11,2 C 10,6 C 8,9 C 86 % 0 lf 999,5 hPa 0,0 l/m 0 min 0 min 0 W/m 20,3 km/h (4 Bft) 100,00 %
03.04.2018 02:42 11,2 C 10,6 C 8,9 C 86 % 1 lf 999,4 hPa 0,0 l/m 0 min 0 min 0 W/m 20,3 km/h (4 Bft) 95,74 %
03.04.2018 02:44 11,2 C 10,6 C 8,9 C 87 % 2 lf 999,4 hPa 0,0 l/m 0 min 0 min 0 W/m 20,3 km/h (4 Bft) 100,00 %
03.04.2018 02:46 11,2 C 10,6 C 8,9 C 86 % 1 lf 999,4 hPa 0,0 l/m 0 min 0 min 0 W/m 29,3 km/h (5 Bft) 100,00 %
03.04.2018 02:48 11,2 C 10,6 C 8,9 C 87 % 1 lf 999,4 hPa 0,0 l/m 0 min 0 min 0 W/m 24,8 km/h (4 Bft) 97,87 %
03.04.2018 02:50 11,2 C 10,6 C 8,3 C 87 % 1 lf 999,4 hPa 0,0 l/m 0 min 2 min 0 W/m 20,3 km/h (4 Bft) 100,00 %
03.04.2018 02:52 11,2 C 10,6 C 8,3 C 87 % 0 lf 999,4 hPa 0,0 l/m 0 min 2 min 0 W/m 18,0 km/h (3 Bft) 97,87 %
03.04.2018 02:54 11,1 C 10,6 C 8,3 C 87 % 3 lf 999,4 hPa 0,0 l/m 0 min 2 min 0 W/m 18,0 km/h (3 Bft) 100,00 %
03.04.2018 02:56 11,1 C 10,6 C 8,3 C 87 % 4 lf 999,4 hPa 0,0 l/m 0 min 2 min 0 W/m 20,3 km/h (4 Bft) 97,83 %
03.04.2018 02:58 11,1 C 10,6 C 8,3 C 87 % 3 lf 999,4 hPa 0,0 l/m 0 min 2 min 0 W/m 45,1 km/h (6 Bft) 100,00 %
03.04.2018 03:00 11,1 C 10,6 C 8,3 C 87 % 4 lf 999,4 hPa 0,0 l/m 0 min 2 min 0 W/m 29,3 km/h (5 Bft) 100,00 %
03.04.2018 03:02 11,1 C 10,0 C 8,3 C 88 % 2 lf 999,4 hPa 0,0 l/m 0 min 2 min 0 W/m 27,0 km/h (4 Bft) 95,74 %
03.04.2018 03:04 11,1 C 10,0 C 8,3 C 88 % 2 lf 999,3 hPa 0,0 l/m 0 min 2 min 0 W/m 31,5 km/h (5 Bft) 97,87 %
03.04.2018 03:06 11,1 C 10,0 C 8,3 C 88 % 2 lf 999,3 hPa 0,0 l/m 0 min 2 min 0 W/m 36,0 km/h (5 Bft) 97,87 %
03.04.2018 03:08 11,1 C 10,0 C 8,3 C 88 % 3 lf 999,4 hPa 0,0 l/m 0 min 2 min 0 W/m 24,8 km/h (4 Bft) 97,83 %
03.04.2018 03:10 11,1 C 10,0 C 8,3 C 88 % 3 lf 999,3 hPa 0,0 l/m 0 min 2 min 0 W/m 24,8 km/h (4 Bft) 93,62 %
03.04.2018 03:12 11,1 C 10,0 C 8,3 C 88 % 7 lf 999,3 hPa 0,0 l/m 0 min 2 min 0 W/m 22,5 km/h (4 Bft) 97,87 %
03.04.2018 03:14 11,1 C 10,0 C 8,3 C 88 % 11 lf 999,4 hPa 0,0 l/m 0 min 2 min 0 W/m 27,0 km/h (4 Bft) 97,87 %
03.04.2018 03:16 11,1 C 10,0 C 8,3 C 88 % 13 lf 999,3 hPa 0,0 l/m 0 min 2 min 0 W/m 18,0 km/h (3 Bft) 97,87 %
03.04.2018 03:18 11,1 C 9,4 C 8,3 C 89 % 14 lf 999,2 hPa 0,0 l/m 0 min 2 min 0 W/m 18,0 km/h (3 Bft) 97,83 %
03.04.2018 03:20 11,0 C 9,4 C 8,3 C 89 % 15 lf 999,3 hPa 0,0 l/m 0 min 2 min 0 W/m 20,3 km/h (4 Bft) 95,74 %
03.04.2018 03:22 11,0 C 9,4 C 8,3 C 89 % 15 lf 999,3 hPa 0,0 l/m 0 min 2 min 0 W/m 29,3 km/h (5 Bft) 97,87 %
03.04.2018 03:24 10,9 C 9,4 C 8,3 C 89 % 15 lf 999,3 hPa 0,0 l/m 0 min 2 min 0 W/m 24,8 km/h (4 Bft) 97,87 %
03.04.2018 03:26 10,9 C 9,4 C 8,3 C 89 % 15 lf 999,3 hPa 0,0 l/m 0 min 2 min 0 W/m 29,3 km/h (5 Bft) 93,62 %
03.04.2018 03:28 10,9 C 9,4 C 8,3 C 90 % 15 lf 999,4 hPa 0,0 l/m 0 min 2 min 0 W/m 18,0 km/h (3 Bft) 95,74 %
03.04.2018 03:30 10,9 C 9,4 C 8,3 C 90 % 15 lf 999,4 hPa 0,0 l/m 0 min 2 min 0 W/m 18,0 km/h (3 Bft) 95,65 %
03.04.2018 03:32 10,9 C 9,4 C 8,3 C 90 % 15 lf 999,3 hPa 0,0 l/m 0 min 2 min 0 W/m 24,8 km/h (4 Bft) 95,74 %
03.04.2018 03:34 10,8 C 9,4 C 8,3 C 90 % 15 lf 999,3 hPa 0,0 l/m 0 min 2 min 0 W/m 15,8 km/h (3 Bft) 97,87 %
03.04.2018 03:36 10,8 C 9,4 C 8,3 C 90 % 15 lf 999,3 hPa 0,0 l/m 0 min 2 min 0 W/m 20,3 km/h (4 Bft) 95,74 %
03.04.2018 03:38 10,8 C 9,4 C 8,3 C 90 % 15 lf 999,4 hPa 0,0 l/m 0 min 2 min 0 W/m 20,3 km/h (4 Bft) 97,87 %
03.04.2018 03:40 10,8 C 9,4 C 8,3 C 90 % 15 lf 999,3 hPa 0,0 l/m 0 min 2 min 0 W/m 22,5 km/h (4 Bft) 97,87 %
03.04.2018 03:42 10,7 C 9,4 C 8,3 C 91 % 15 lf 999,3 hPa 0,2 l/m 0 min 2 min 0 W/m 24,8 km/h (4 Bft) 97,83 %
03.04.2018 03:44 10,7 C 9,4 C 8,3 C 91 % 15 lf 999,3 hPa 0,0 l/m 0 min 2 min 0 W/m 24,8 km/h (4 Bft) 95,74 %
03.04.2018 03:46 10,7 C 9,4 C 8,3 C 91 % 15 lf 999,3 hPa 0,0 l/m 0 min 0 min 0 W/m 18,0 km/h (3 Bft) 91,49 %
03.04.2018 03:48 10,7 C 9,4 C 8,3 C 91 % 15 lf 999,3 hPa 0,0 l/m 0 min 0 min 0 W/m 18,0 km/h (3 Bft) 95,74 %
03.04.2018 03:50 10,6 C 9,4 C 8,3 C 91 % 15 lf 999,2 hPa 0,0 l/m 0 min 0 min 0 W/m 13,5 km/h (3 Bft) 95,74 %
03.04.2018 03:52 10,6 C 9,4 C 8,3 C 91 % 15 lf 999,3 hPa 0,0 l/m 0 min 0 min 0 W/m 18,0 km/h (3 Bft) 89,36 %
03.04.2018 03:54 10,6 C 9,4 C 8,3 C 91 % 15 lf 999,3 hPa 0,0 l/m 0 min 0 min 0 W/m 13,5 km/h (3 Bft) 86,96 %
03.04.2018 03:56 10,6 C 9,4 C 8,3 C 91 % 15 lf 999,3 hPa 0,0 l/m 0 min 0 min 0 W/m 20,3 km/h (4 Bft) 95,74 %
03.04.2018 03:58 10,6 C 9,4 C 8,3 C 91 % 15 lf 999,3 hPa 0,0 l/m 0 min 0 min 0 W/m 13,5 km/h (3 Bft) 95,74 %
03.04.2018 04:00 10,6 C 9,4 C 8,3 C 92 % 15 lf 999,3 hPa 0,0 l/m 0 min 0 min 0 W/m 15,8 km/h (3 Bft) 95,74 %
03.04.2018 04:02 10,5 C 9,4 C 8,3 C 92 % 15 lf 999,3 hPa 0,0 l/m 0 min 0 min 0 W/m 9,0 km/h (2 Bft) 94,74 %
03.04.2018 04:04 10,5 C 9,4 C 8,3 C 92 % 15 lf 999,3 hPa 0,0 l/m 0 min 0 min 0 W/m 9,0 km/h (2 Bft) 97,87 %
03.04.2018 04:06 10,5 C 9,4 C 8,3 C 92 % 15 lf 999,3 hPa 0,0 l/m 0 min 0 min 0 W/m 11,3 km/h (2 Bft) 86,96 %
03.04.2018 04:08 10,4 C 9,4 C 8,3 C 92 % 15 lf 999,2 hPa 0,0 l/m 0 min 0 min 0 W/m 13,5 km/h (3 Bft) 100,00 %
03.04.2018 04:10 10,4 C 9,4 C 7,8 C 92 % 15 lf 999,1 hPa 0,0 l/m 0 min 0 min 0 W/m 15,8 km/h (3 Bft) 95,74 %
03.04.2018 04:12 10,4 C 9,4 C 7,8 C 92 % 15 lf 999,2 hPa 0,0 l/m 0 min 0 min 0 W/m 13,5 km/h (3 Bft) 95,74 %
03.04.2018 04:14 10,4 C 9,4 C 7,8 C 92 % 15 lf 999,1 hPa 0,0 l/m 0 min 0 min 0 W/m 11,3 km/h (2 Bft) 91,49 %
03.04.2018 04:16 10,4 C 9,4 C 7,8 C 92 % 15 lf 999,2 hPa 0,0 l/m 0 min 0 min 0 W/m 13,5 km/h (3 Bft) 95,74 %
03.04.2018 04:18 10,4 C 9,4 C 7,8 C 92 % 15 lf 999,1 hPa 0,0 l/m 0 min 0 min 0 W/m 13,5 km/h (3 Bft) 97,83 %
03.04.2018 04:22 10,4 C 9,4 C 7,8 C 92 % 14 lf 999,2 hPa 0,0 l/m 0 min 0 min 0 W/m 13,5 km/h (3 Bft) 92,11 %
03.04.2018 04:24 10,3 C 9,4 C 7,8 C 92 % 14 lf 999,2 hPa 0,0 l/m 0 min 0 min 0 W/m 18,0 km/h (3 Bft) 93,62 %
03.04.2018 04:26 10,3 C 8,9 C 7,8 C 92 % 14 lf 999,2 hPa 0,0 l/m 0 min 0 min 0 W/m 15,8 km/h (3 Bft) 91,49 %
03.04.2018 04:28 10,3 C 9,4 C 7,8 C 92 % 14 lf 999,2 hPa 0,0 l/m 0 min 0 min 0 W/m 15,8 km/h (3 Bft) 91,30 %
03.04.2018 04:30 10,3 C 8,9 C 7,8 C 92 % 13 lf 999,2 hPa 0,0 l/m 0 min 0 min 0 W/m 13,5 km/h (3 Bft) 95,74 %
03.04.2018 04:32 10,3 C 8,9 C 7,8 C 92 % 13 lf 999,2 hPa 0,0 l/m 0 min 0 min 0 W/m 11,3 km/h (2 Bft) 95,74 %
03.04.2018 04:34 10,3 C 8,9 C 7,8 C 92 % 12 lf 999,3 hPa 0,0 l/m 0 min 0 min 0 W/m 11,3 km/h (2 Bft) 95,74 %
03.04.2018 04:36 10,2 C 8,9 C 7,2 C 92 % 12 lf 999,3 hPa 0,0 l/m 0 min 0 min 0 W/m 13,5 km/h (3 Bft) 95,74 %
03.04.2018 04:38 10,2 C 8,9 C 7,2 C 92 % 11 lf 999,3 hPa 0,0 l/m 0 min 0 min 0 W/m 9,0 km/h (2 Bft) 95,74 %
03.04.2018 04:40 10,2 C 8,9 C 7,2 C 92 % 11 lf 999,3 hPa 0,0 l/m 0 min 0 min 0 W/m 9,0 km/h (2 Bft) 95,65 %
03.04.2018 04:42 10,2 C 8,9 C 7,2 C 92 % 10 lf 999,2 hPa 0,0 l/m 0 min 0 min 0 W/m 11,3 km/h (2 Bft) 95,74 %
03.04.2018 04:44 10,2 C 8,9 C 7,2 C 92 % 10 lf 999,2 hPa 0,0 l/m 0 min 0 min 0 W/m 13,5 km/h (3 Bft) 93,62 %
03.04.2018 04:46 10,1 C 8,9 C 7,2 C 92 % 10 lf 999,3 hPa 0,0 l/m 0 min 0 min 0 W/m 11,3 km/h (2 Bft) 93,62 %
03.04.2018 04:48 10,1 C 8,9 C 7,2 C 92 % 9 lf 999,3 hPa 0,0 l/m 0 min 0 min 0 W/m 9,0 km/h (2 Bft) 93,62 %
03.04.2018 04:50 10,1 C 8,9 C 7,2 C 92 % 9 lf 999,3 hPa 0,0 l/m 0 min 0 min 0 W/m 13,5 km/h (3 Bft) 93,62 %
03.04.2018 04:52 10,0 C 8,9 C 7,2 C 92 % 8 lf 999,3 hPa 0,0 l/m 0 min 0 min 0 W/m 11,3 km/h (2 Bft) 95,65 %
03.04.2018 04:54 10,0 C 8,9 C 7,2 C 92 % 7 lf 999,3 hPa 0,0 l/m 0 min 0 min 0 W/m 11,3 km/h (2 Bft) 97,87 %
03.04.2018 04:56 10,0 C 8,9 C 7,2 C 92 % 6 lf 999,3 hPa 0,0 l/m 0 min 0 min 0 W/m 11,3 km/h (2 Bft) 97,87 %
03.04.2018 04:58 9,9 C 8,9 C 7,2 C 92 % 5 lf 999,4 hPa 0,0 l/m 0 min 0 min 0 W/m 13,5 km/h (3 Bft) 95,74 %
03.04.2018 05:00 9,9 C 8,9 C 7,2 C 92 % 4 lf 999,4 hPa 0,0 l/m 0 min 0 min 0 W/m 11,3 km/h (2 Bft) 97,87 %
03.04.2018 05:02 9,9 C 8,9 C 7,2 C 92 % 4 lf 999,5 hPa 0,0 l/m 0 min 0 min 0 W/m 13,5 km/h (3 Bft) 93,48 %
03.04.2018 05:04 9,9 C 8,9 C 7,2 C 92 % 3 lf 999,5 hPa 0,0 l/m 0 min 0 min 0 W/m 9,0 km/h (2 Bft) 95,74 %
03.04.2018 05:06 9,9 C 8,9 C 7,2 C 92 % 3 lf 999,5 hPa 0,0 l/m 0 min 0 min 0 W/m 11,3 km/h (2 Bft) 95,74 %
03.04.2018 05:08 9,9 C 8,9 C 7,2 C 92 % 3 lf 999,5 hPa 0,0 l/m 0 min 0 min 0 W/m 9,0 km/h (2 Bft) 93,62 %
03.04.2018 05:10 9,9 C 8,9 C 7,2 C 92 % 2 lf 999,6 hPa 0,0 l/m 0 min 0 min 0 W/m 13,5 km/h (3 Bft) 100,00 %
03.04.2018 05:12 9,8 C 8,9 C 7,2 C 92 % 2 lf 999,6 hPa 0,0 l/m 0 min 0 min 0 W/m 9,0 km/h (2 Bft) 97,87 %
03.04.2018 05:14 9,8 C 8,9 C 7,2 C 92 % 2 lf 999,6 hPa 0,0 l/m 0 min 0 min 0 W/m 9,0 km/h (2 Bft) 100,00 %
03.04.2018 05:16 9,8 C 8,9 C 7,2 C 92 % 1 lf 999,6 hPa 0,0 l/m 0 min 0 min 0 W/m 15,8 km/h (3 Bft) 97,87 %
03.04.2018 05:18 9,8 C 8,9 C 7,2 C 92 % 1 lf 999,5 hPa 0,0 l/m 0 min 0 min 0 W/m 18,0 km/h (3 Bft) 95,74 %
03.04.2018 05:20 9,8 C 8,9 C 7,2 C 92 % 0 lf 999,6 hPa 0,0 l/m 0 min 0 min 0 W/m 18,0 km/h (3 Bft) 100,00 %
03.04.2018 05:22 9,8 C 9,4 C 7,8 C 92 % 0 lf 999,6 hPa 0,0 l/m 0 min 0 min 0 W/m 15,8 km/h (3 Bft) 100,00 %
03.04.2018 05:24 9,8 C 9,4 C 7,8 C 92 % 0 lf 999,6 hPa 0,0 l/m 0 min 0 min 0 W/m 11,3 km/h (2 Bft) 100,00 %
03.04.2018 05:26 9,8 C 8,9 C 7,8 C 92 % 0 lf 999,5 hPa 0,0 l/m 0 min 0 min 0 W/m 11,3 km/h (2 Bft) 95,65 %
03.04.2018 05:28 9,8 C 8,9 C 7,8 C 92 % 0 lf 999,5 hPa 0,0 l/m 0 min 0 min 0 W/m 9,0 km/h (2 Bft) 98,31 %
03.04.2018 05:30 9,8 C 8,9 C 7,8 C 92 % 0 lf 999,5 hPa 0,0 l/m 0 min 0 min 0 W/m 9,0 km/h (2 Bft) 97,87 %
03.04.2018 05:32 9,8 C 8,9 C 7,2 C 92 % 0 lf 999,5 hPa 0,0 l/m 0 min 0 min 0 W/m 6,8 km/h (2 Bft) 100,00 %
03.04.2018 05:34 9,8 C 8,9 C 7,2 C 93 % 0 lf 999,5 hPa 0,0 l/m 0 min 0 min 0 W/m 6,8 km/h (2 Bft) 100,00 %
03.04.2018 05:35 9,8 C 8,9 C 7,2 C 93 % 0 lf 999,5 hPa 0,0 l/m 0 min 0 min 0 W/m 13,5 km/h (3 Bft) 100,00 %
03.04.2018 05:40 9,8 C 9,4 C 7,2 C 93 % 0 lf 999,5 hPa 0,0 l/m 0 min 0 min 0 W/m 6,8 km/h (2 Bft) 97,14 %
03.04.2018 05:42 9,8 C 9,4 C 7,2 C 93 % 0 lf 999,5 hPa 0,0 l/m 0 min 0 min 0 W/m 11,3 km/h (2 Bft) 97,87 %
03.04.2018 05:44 9,8 C 9,4 C 7,2 C 93 % 0 lf 999,5 hPa 0,0 l/m 0 min 0 min 0 W/m 9,0 km/h (2 Bft) 95,74 %
03.04.2018 05:46 9,8 C 9,4 C 7,2 C 93 % 0 lf 999,5 hPa 0,0 l/m 0 min 0 min 0 W/m 11,3 km/h (2 Bft) 95,74 %
03.04.2018 05:48 9,8 C 9,4 C 7,2 C 93 % 0 lf 999,5 hPa 0,0 l/m 0 min 0 min 0 W/m 9,0 km/h (2 Bft) 95,65 %
03.04.2018 05:50 9,8 C 9,4 C 7,2 C 93 % 0 lf 999,5 hPa 0,0 l/m 0 min 0 min 0 W/m 18,0 km/h (3 Bft) 97,87 %
03.04.2018 05:52 9,8 C 9,4 C 7,2 C 93 % 0 lf 999,5 hPa 0,0 l/m 0 min 0 min 0 W/m 11,3 km/h (2 Bft) 95,24 %
03.04.2018 05:54 9,8 C 9,4 C 7,2 C 93 % 0 lf 999,5 hPa 0,0 l/m 0 min 0 min 0 W/m 11,3 km/h (2 Bft) 97,87 %
03.04.2018 05:56 9,8 C 9,4 C 7,2 C 93 % 0 lf 999,6 hPa 0,0 l/m 0 min 0 min 0 W/m 11,3 km/h (2 Bft) 95,65 %
03.04.2018 05:58 9,8 C 9,4 C 7,2 C 93 % 0 lf 999,6 hPa 0,0 l/m 0 min 0 min 0 W/m 11,3 km/h (2 Bft) 97,87 %
03.04.2018 06:00 9,8 C 9,4 C 7,2 C 93 % 0 lf 999,5 hPa 0,0 l/m 0 min 0 min 0 W/m 13,5 km/h (3 Bft) 95,74 %
03.04.2018 06:02 9,8 C 9,4 C 7,2 C 93 % 0 lf 999,5 hPa 0,0 l/m 0 min 0 min 0 W/m 13,5 km/h (3 Bft) 95,74 %
03.04.2018 06:04 9,8 C 9,4 C 7,2 C 93 % 0 lf 999,6 hPa 0,0 l/m 0 min 0 min 0 W/m 13,5 km/h (3 Bft) 97,87 %
03.04.2018 06:08 9,8 C 9,4 C 7,2 C 93 % 0 lf 999,6 hPa 0,0 l/m 0 min 0 min 0 W/m 13,5 km/h (3 Bft) 97,85 %
03.04.2018 06:12 9,7 C 9,4 C 7,2 C 93 % 0 lf 999,6 hPa 0,0 l/m 0 min 0 min 0 W/m 15,8 km/h (3 Bft) 97,92 %
03.04.2018 06:14 9,7 C 9,4 C 7,2 C 93 % 0 lf 999,5 hPa 0,0 l/m 0 min 0 min 0 W/m 11,3 km/h (2 Bft) 95,74 %
03.04.2018 06:16 9,7 C 9,4 C 7,2 C 93 % 0 lf 999,5 hPa 0,0 l/m 0 min 0 min 0 W/m 13,5 km/h (3 Bft) 100,00 %
03.04.2018 06:18 9,7 C 9,4 C 7,2 C 93 % 0 lf 999,4 hPa 0,0 l/m 0 min 0 min 0 W/m 13,5 km/h (3 Bft) 100,00 %
03.04.2018 06:20 9,7 C 9,4 C 7,2 C 93 % 0 lf 999,4 hPa 0,0 l/m 0 min 0 min 0 W/m 11,3 km/h (2 Bft) 100,00 %
03.04.2018 06:22 9,7 C 9,4 C 7,2 C 93 % 0 lf 999,4 hPa 0,0 l/m 0 min 0 min 0 W/m 11,3 km/h (2 Bft) 100,00 %
03.04.2018 06:24 9,7 C 9,4 C 7,2 C 93 % 0 lf 999,4 hPa 0,0 l/m 0 min 0 min 0 W/m 13,5 km/h (3 Bft) 100,00 %
03.04.2018 06:26 9,7 C 9,4 C 7,2 C 93 % 0 lf 999,4 hPa 0,0 l/m 0 min 0 min 0 W/m 9,0 km/h (2 Bft) 100,00 %
03.04.2018 06:28 9,7 C 9,4 C 7,2 C 93 % 0 lf 999,3 hPa 0,0 l/m 0 min 0 min 0 W/m 11,3 km/h (2 Bft) 97,83 %
03.04.2018 06:30 9,6 C 9,4 C 7,2 C 93 % 0 lf 999,3 hPa 0,0 l/m 0 min 0 min 0 W/m 13,5 km/h (3 Bft) 97,87 %
03.04.2018 06:32 9,6 C 9,4 C 7,2 C 93 % 0 lf 999,3 hPa 0,0 l/m 0 min 0 min 0 W/m 11,3 km/h (2 Bft) 97,87 %
03.04.2018 06:34 9,6 C 9,4 C 7,2 C 93 % 0 lf 999,4 hPa 0,0 l/m 0 min 0 min 0 W/m 9,0 km/h (2 Bft) 100,00 %
03.04.2018 06:38 9,6 C 9,4 C 7,2 C 93 % 0 lf 999,3 hPa 0,0 l/m 0 min 0 min 0 W/m 15,8 km/h (3 Bft) 97,87 %
03.04.2018 06:40 9,6 C 9,4 C 7,2 C 93 % 0 lf 999,3 hPa 0,0 l/m 0 min 0 min 0 W/m 13,5 km/h (3 Bft) 95,65 %
03.04.2018 06:42 9,6 C 9,4 C 7,2 C 93 % 0 lf 999,4 hPa 0,0 l/m 0 min 0 min 0 W/m 15,8 km/h (3 Bft) 93,62 %
03.04.2018 06:44 9,6 C 9,4 C 7,2 C 93 % 0 lf 999,3 hPa 0,0 l/m 0 min 0 min 0 W/m 15,8 km/h (3 Bft) 97,87 %
03.04.2018 06:46 9,6 C 9,4 C 7,2 C 93 % 0 lf 999,4 hPa 0,0 l/m 0 min 0 min 0 W/m 13,5 km/h (3 Bft) 95,74 %
03.04.2018 06:48 9,6 C 9,4 C 7,2 C 93 % 0 lf 999,4 hPa 0,0 l/m 0 min 0 min 0 W/m 11,3 km/h (2 Bft) 93,62 %
03.04.2018 06:50 9,6 C 9,4 C 7,2 C 93 % 0 lf 999,4 hPa 0,0 l/m 0 min 0 min 0 W/m 11,3 km/h (2 Bft) 95,74 %
03.04.2018 06:52 9,6 C 9,4 C 7,2 C 92 % 0 lf 999,4 hPa 0,0 l/m 0 min 0 min 0 W/m 13,5 km/h (3 Bft) 93,48 %
03.04.2018 06:54 9,6 C 9,4 C 7,2 C 92 % 0 lf 999,4 hPa 0,0 l/m 0 min 0 min 0 W/m 13,5 km/h (3 Bft) 97,87 %
03.04.2018 06:56 9,6 C 9,4 C 7,2 C 92 % 0 lf 999,4 hPa 0,0 l/m 0 min 0 min 0 W/m 11,3 km/h (2 Bft) 97,87 %
03.04.2018 06:58 9,6 C 9,4 C 7,2 C 92 % 0 lf 999,5 hPa 0,0 l/m 0 min 0 min 0 W/m 15,8 km/h (3 Bft) 93,62 %
03.04.2018 07:00 9,6 C 9,4 C 7,2 C 92 % 0 lf 999,4 hPa 0,0 l/m 0 min 0 min 0 W/m 11,3 km/h (2 Bft) 93,62 %
03.04.2018 07:02 9,6 C 9,4 C 7,2 C 92 % 0 lf 999,5 hPa 0,0 l/m 0 min 0 min 0 W/m 11,3 km/h (2 Bft) 93,62 %
03.04.2018 07:04 9,6 C 9,4 C 7,2 C 92 % 0 lf 999,5 hPa 0,0 l/m 0 min 0 min 0 W/m 11,3 km/h (2 Bft) 95,65 %
03.04.2018 07:08 9,6 C 9,4 C 7,2 C 92 % 0 lf 999,4 hPa 0,0 l/m 0 min 0 min 4 W/m 13,5 km/h (3 Bft) 92,55 %
03.04.2018 07:10 9,6 C 9,4 C 7,2 C 92 % 0 lf 999,4 hPa 0,0 l/m 0 min 0 min 5 W/m 11,3 km/h (2 Bft) 89,36 %
03.04.2018 07:12 9,6 C 9,4 C 7,2 C 92 % 0 lf 999,4 hPa 0,0 l/m 0 min 0 min 7 W/m 11,3 km/h (2 Bft) 91,49 %
03.04.2018 07:14 9,6 C 9,4 C 7,2 C 92 % 0 lf 999,4 hPa 0,0 l/m 0 min 0 min 7 W/m 9,0 km/h (2 Bft) 93,62 %
03.04.2018 07:16 9,6 C 9,4 C 7,2 C 92 % 0 lf 999,4 hPa 0,0 l/m 0 min 0 min 5 W/m 6,8 km/h (2 Bft) 95,65 %
03.04.2018 07:18 9,6 C 9,4 C 7,2 C 92 % 0 lf 999,3 hPa 0,0 l/m 0 min 0 min 5 W/m 9,0 km/h (2 Bft) 93,62 %
03.04.2018 07:20 9,6 C 9,4 C 7,2 C 92 % 0 lf 999,3 hPa 0,0 l/m 0 min 0 min 7 W/m 11,3 km/h (2 Bft) 89,36 %
03.04.2018 07:22 9,6 C 9,4 C 7,2 C 92 % 0 lf 999,3 hPa 0,0 l/m 0 min 0 min 7 W/m 6,8 km/h (2 Bft) 91,49 %
03.04.2018 07:24 9,6 C 9,4 C 7,2 C 92 % 0 lf 999,3 hPa 0,0 l/m 0 min 0 min 6 W/m 9,0 km/h (2 Bft) 93,62 %
03.04.2018 07:26 9,6 C 9,4 C 7,2 C 92 % 0 lf 999,4 hPa 0,0 l/m 0 min 0 min 7 W/m 9,0 km/h (2 Bft) 93,48 %
03.04.2018 07:28 9,6 C 9,4 C 7,2 C 92 % 0 lf 999,4 hPa 0,0 l/m 0 min 0 min 8 W/m 4,5 km/h (1 Bft) 89,36 %
03.04.2018 07:30 9,6 C 9,4 C 7,2 C 92 % 0 lf 999,4 hPa 0,0 l/m 0 min 0 min 9 W/m 11,3 km/h (2 Bft) 91,49 %
03.04.2018 07:32 9,6 C 9,4 C 7,2 C 92 % 0 lf 999,4 hPa 0,0 l/m 0 min 0 min 12 W/m 6,8 km/h (2 Bft) 91,49 %
03.04.2018 07:34 9,6 C 9,4 C 7,2 C 92 % 0 lf 999,4 hPa 0,0 l/m 0 min 0 min 13 W/m 11,3 km/h (2 Bft) 93,62 %
03.04.2018 07:38 9,6 C 9,4 C 7,8 C 92 % 0 lf 999,4 hPa 0,0 l/m 0 min 0 min 15 W/m 11,3 km/h (2 Bft) 91,40 %
03.04.2018 07:40 9,6 C 9,4 C 7,8 C 92 % 0 lf 999,4 hPa 0,0 l/m 0 min 0 min 19 W/m 13,5 km/h (3 Bft) 95,74 %
03.04.2018 07:42 9,7 C 9,4 C 7,8 C 92 % 0 lf 999,5 hPa 0,0 l/m 0 min 0 min 22 W/m 13,5 km/h (3 Bft) 91,49 %
03.04.2018 07:44 9,7 C 9,4 C 7,8 C 92 % 0 lf 999,5 hPa 0,0 l/m 0 min 0 min 25 W/m 11,3 km/h (2 Bft) 93,62 %
03.04.2018 07:46 9,7 C 9,4 C 7,8 C 92 % 0 lf 999,4 hPa 0,0 l/m 0 min 0 min 25 W/m 13,5 km/h (3 Bft) 91,49 %
03.04.2018 07:48 9,7 C 9,4 C 7,8 C 92 % 0 lf 999,5 hPa 0,0 l/m 0 min 0 min 25 W/m 11,3 km/h (2 Bft) 93,62 %
03.04.2018 07:50 9,7 C 9,4 C 7,8 C 91 % 0 lf 999,5 hPa 0,0 l/m 0 min 0 min 25 W/m 11,3 km/h (2 Bft) 93,48 %
03.04.2018 07:52 9,7 C 10,0 C 7,8 C 91 % 0 lf 999,5 hPa 0,0 l/m 0 min 0 min 29 W/m 13,5 km/h (3 Bft) 93,62 %
03.04.2018 07:54 9,7 C 10,0 C 7,8 C 91 % 0 lf 999,6 hPa 0,0 l/m 0 min 0 min 32 W/m 11,3 km/h (2 Bft) 98,00 %
03.04.2018 07:56 9,7 C 10,0 C 7,8 C 92 % 0 lf 999,6 hPa 0,0 l/m 0 min 0 min 34 W/m 9,0 km/h (2 Bft) 97,83 %
03.04.2018 07:58 9,7 C 10,0 C 7,8 C 91 % 0 lf 999,6 hPa 0,0 l/m 0 min 0 min 36 W/m 11,3 km/h (2 Bft) 95,74 %
03.04.2018 08:00 9,7 C 10,0 C 7,8 C 92 % 0 lf 999,6 hPa 0,0 l/m 0 min 0 min 37 W/m 11,3 km/h (2 Bft) 97,87 %
03.04.2018 08:02 9,7 C 10,0 C 7,8 C 92 % 0 lf 999,5 hPa 0,0 l/m 0 min 0 min 36 W/m 13,5 km/h (3 Bft) 91,49 %
03.04.2018 08:04 9,7 C 10,0 C 7,8 C 92 % 0 lf 999,6 hPa 0,0 l/m 0 min 0 min 33 W/m 11,3 km/h (2 Bft) 95,74 %
03.04.2018 08:08 9,8 C 10,0 C 7,8 C 92 % 0 lf 999,6 hPa 0,0 l/m 0 min 0 min 31 W/m 11,3 km/h (2 Bft) 97,85 %
03.04.2018 08:10 9,8 C 10,0 C 7,8 C 92 % 0 lf 999,6 hPa 0,0 l/m 0 min 0 min 34 W/m 13,5 km/h (3 Bft) 97,87 %
03.04.2018 08:12 9,8 C 10,0 C 8,3 C 92 % 0 lf 999,6 hPa 0,0 l/m 0 min 0 min 46 W/m 11,3 km/h (2 Bft) 95,74 %
03.04.2018 08:14 9,8 C 10,6 C 8,3 C 92 % 0 lf 999,5 hPa 0,0 l/m 0 min 0 min 50 W/m 9,0 km/h (2 Bft) 97,87 %
03.04.2018 08:16 9,9 C 10,6 C 8,3 C 92 % 0 lf 999,5 hPa 0,0 l/m 0 min 0 min 56 W/m 11,3 km/h (2 Bft) 97,87 %
03.04.2018 08:18 9,9 C 10,6 C 8,3 C 92 % 0 lf 999,6 hPa 0,0 l/m 0 min 0 min 60 W/m 11,3 km/h (2 Bft) 100,00 %
03.04.2018 08:20 9,9 C 10,6 C 8,3 C 92 % 0 lf 999,7 hPa 0,0 l/m 0 min 0 min 60 W/m 11,3 km/h (2 Bft) 97,83 %
03.04.2018 08:22 10,0 C 10,6 C 8,3 C 92 % 0 lf 999,7 hPa 0,0 l/m 0 min 0 min 56 W/m 13,5 km/h (3 Bft) 100,00 %
03.04.2018 08:24 10,0 C 10,6 C 8,3 C 91 % 0 lf 999,7 hPa 0,0 l/m 0 min 0 min 51 W/m 11,3 km/h (2 Bft) 100,00 %
03.04.2018 08:26 10,1 C 10,6 C 8,3 C 91 % 0 lf 999,7 hPa 0,0 l/m 0 min 0 min 44 W/m 11,3 km/h (2 Bft) 100,00 %
03.04.2018 08:28 10,1 C 10,6 C 8,3 C 91 % 0 lf 999,7 hPa 0,0 l/m 0 min 0 min 39 W/m 11,3 km/h (2 Bft) 100,00 %
03.04.2018 08:30 10,1 C 10,6 C 8,3 C 91 % 0 lf 999,6 hPa 0,0 l/m 0 min 0 min 36 W/m 9,0 km/h (2 Bft) 100,00 %
03.04.2018 08:32 10,1 C 10,6 C 8,3 C 92 % 0 lf 999,6 hPa 0,0 l/m 0 min 0 min 33 W/m 13,5 km/h (3 Bft) 97,87 %
03.04.2018 08:34 10,2 C 10,6 C 8,3 C 91 % 0 lf 999,7 hPa 0,0 l/m 0 min 0 min 33 W/m 11,3 km/h (2 Bft) 95,74 %
03.04.2018 08:38 10,2 C 10,6 C 8,3 C 91 % 0 lf 999,7 hPa 0,0 l/m 0 min 0 min 35 W/m 15,8 km/h (3 Bft) 97,87 %
03.04.2018 08:40 10,3 C 11,1 C 8,3 C 91 % 0 lf 999,7 hPa 0,0 l/m 0 min 0 min 34 W/m 13,5 km/h (3 Bft) 100,00 %
03.04.2018 08:42 10,3 C 11,1 C 8,9 C 91 % 0 lf 999,8 hPa 0,0 l/m 0 min 0 min 32 W/m 15,8 km/h (3 Bft) 95,65 %
03.04.2018 08:44 10,3 C 11,1 C 8,9 C 91 % 0 lf 999,8 hPa 0,0 l/m 0 min 0 min 33 W/m 15,8 km/h (3 Bft) 95,74 %
03.04.2018 08:46 10,4 C 11,1 C 8,9 C 91 % 0 lf 999,8 hPa 0,0 l/m 0 min 0 min 42 W/m 11,3 km/h (2 Bft) 100,00 %
03.04.2018 08:48 10,4 C 11,1 C 8,9 C 91 % 0 lf 999,8 hPa 0,0 l/m 0 min 0 min 48 W/m 11,3 km/h (2 Bft) 100,00 %
03.04.2018 08:50 10,4 C 11,1 C 8,9 C 91 % 0 lf 999,8 hPa 0,0 l/m 0 min 0 min 57 W/m 13,5 km/h (3 Bft) 100,00 %
03.04.2018 08:52 10,5 C 11,1 C 8,9 C 91 % 0 lf 999,8 hPa 0,0 l/m 0 min 0 min 63 W/m 13,5 km/h (3 Bft) 97,87 %
03.04.2018 08:54 10,6 C 11,1 C 8,9 C 90 % 0 lf 999,9 hPa 0,0 l/m 0 min 0 min 69 W/m 9,0 km/h (2 Bft) 100,00 %
03.04.2018 08:56 10,6 C 11,7 C 8,9 C 90 % 0 lf 999,8 hPa 0,0 l/m 0 min 0 min 73 W/m 11,3 km/h (2 Bft) 100,00 %
03.04.2018 08:58 10,6 C 11,7 C 8,9 C 90 % 0 lf 999,8 hPa 0,0 l/m 0 min 0 min 79 W/m 9,0 km/h (2 Bft) 100,00 %
03.04.2018 09:00 10,7 C 11,7 C 9,4 C 90 % 0 lf 999,8 hPa 0,0 l/m 0 min 0 min 86 W/m 9,0 km/h (2 Bft) 100,00 %
03.04.2018 09:02 10,7 C 11,7 C 9,4 C 90 % 0 lf 999,8 hPa 0,0 l/m 0 min 0 min 97 W/m 6,8 km/h (2 Bft) 97,87 %
03.04.2018 09:04 10,7 C 11,7 C 9,4 C 90 % 0 lf 999,7 hPa 0,0 l/m 0 min 0 min 108 W/m 9,0 km/h (2 Bft) 97,87 %
03.04.2018 09:08 10,8 C 12,2 C 8,9 C 90 % 0 lf 999,7 hPa 0,0 l/m 0 min 0 min 97 W/m 11,3 km/h (2 Bft) 100,00 %
03.04.2018 09:10 10,8 C 12,2 C 8,9 C 90 % 0 lf 999,7 hPa 0,0 l/m 0 min 0 min 106 W/m 13,5 km/h (3 Bft) 100,00 %
03.04.2018 09:12 10,9 C 13,3 C 8,9 C 90 % 0 lf 999,7 hPa 0,0 l/m 2 min 0 min 192 W/m 9,0 km/h (2 Bft) 100,00 %
03.04.2018 09:14 10,9 C 14,4 C 9,4 C 90 % 0 lf 999,7 hPa 0,0 l/m 2 min 0 min 254 W/m 11,3 km/h (2 Bft) 97,87 %
03.04.2018 09:16 10,9 C 15,6 C 9,4 C 90 % 0 lf 999,7 hPa 0,0 l/m 2 min 0 min 276 W/m 15,8 km/h (3 Bft) 100,00 %
03.04.2018 09:18 11,1 C 16,7 C 9,4 C 90 % 0 lf 999,8 hPa 0,0 l/m 2 min 0 min 285 W/m 13,5 km/h (3 Bft) 97,87 %
03.04.2018 09:20 11,2 C 16,1 C 10,0 C 90 % 0 lf 999,8 hPa 0,0 l/m 2 min 0 min 268 W/m 15,8 km/h (3 Bft) 100,00 %
03.04.2018 09:22 11,2 C 15,6 C 10,0 C 89 % 0 lf 999,8 hPa 0,0 l/m 2 min 0 min 247 W/m 18,0 km/h (3 Bft) 100,00 %
03.04.2018 09:24 11,3 C 15,6 C 10,0 C 89 % 0 lf 999,8 hPa 0,0 l/m 2 min 0 min 237 W/m 20,3 km/h (4 Bft) 100,00 %
03.04.2018 09:26 11,4 C 16,1 C 10,0 C 89 % 0 lf 999,8 hPa 0,0 l/m 2 min 0 min 259 W/m 22,5 km/h (4 Bft) 97,87 %
03.04.2018 09:28 11,5 C 15,6 C 10,0 C 89 % 0 lf 999,9 hPa 0,0 l/m 2 min 0 min 270 W/m 18,0 km/h (3 Bft) 100,00 %
03.04.2018 09:30 11,6 C 15,6 C 10,6 C 89 % 0 lf 999,9 hPa 0,0 l/m 2 min 0 min 279 W/m 20,3 km/h (4 Bft) 100,00 %
03.04.2018 09:32 11,7 C 15,6 C 10,6 C 88 % 0 lf 999,8 hPa 0,0 l/m 2 min 0 min 286 W/m 20,3 km/h (4 Bft) 100,00 %
03.04.2018 09:34 11,8 C 15,6 C 10,6 C 88 % 0 lf 999,8 hPa 0,0 l/m 2 min 0 min 309 W/m 22,5 km/h (4 Bft) 100,00 %
03.04.2018 09:38 12,0 C 16,7 C 11,1 C 87 % 0 lf 999,8 hPa 0,0 l/m 4 min 0 min 330 W/m 29,3 km/h (5 Bft) 98,94 %
03.04.2018 09:40 12,1 C 16,1 C 11,7 C 86 % 0 lf 999,8 hPa 0,0 l/m 2 min 0 min 339 W/m 27,0 km/h (4 Bft) 100,00 %
03.04.2018 09:42 12,2 C 16,7 C 12,2 C 86 % 0 lf 999,8 hPa 0,0 l/m 2 min 0 min 350 W/m 22,5 km/h (4 Bft) 95,74 %
03.04.2018 09:44 12,3 C 17,8 C 12,2 C 86 % 0 lf 999,7 hPa 0,0 l/m 2 min 0 min 352 W/m 22,5 km/h (4 Bft) 97,87 %
03.04.2018 09:46 12,4 C 17,8 C 12,8 C 86 % 0 lf 999,8 hPa 0,0 l/m 2 min 0 min 377 W/m 20,3 km/h (4 Bft) 93,48 %
03.04.2018 09:48 12,5 C 18,3 C 12,8 C 85 % 0 lf 999,8 hPa 0,0 l/m 2 min 0 min 400 W/m 20,3 km/h (4 Bft) 97,87 %
03.04.2018 09:50 12,6 C 18,3 C 13,3 C 85 % 0 lf 999,8 hPa 0,0 l/m 2 min 0 min 441 W/m 20,3 km/h (4 Bft) 96,61 %
03.04.2018 09:52 12,8 C 18,9 C 13,9 C 85 % 0 lf 999,8 hPa 0,0 l/m 2 min 0 min 483 W/m 22,5 km/h (4 Bft) 94,29 %
03.04.2018 09:54 12,9 C 17,8 C 14,4 C 85 % 0 lf 999,8 hPa 0,0 l/m 2 min 0 min 504 W/m 22,5 km/h (4 Bft) 90,74 %
03.04.2018 09:56 13,0 C 16,7 C 14,4 C 84 % 0 lf 999,7 hPa 0,0 l/m 2 min 0 min 328 W/m 27,0 km/h (4 Bft) 93,62 %
03.04.2018 09:58 13,1 C 15,6 C 13,9 C 83 % 0 lf 999,7 hPa 0,0 l/m 2 min 0 min 273 W/m 27,0 km/h (4 Bft) 93,62 %
03.04.2018 10:00 13,2 C 15,6 C 13,9 C 82 % 0 lf 999,8 hPa 0,0 l/m 2 min 0 min 280 W/m 27,0 km/h (4 Bft) 93,48 %
03.04.2018 10:02 13,2 C 15,6 C 13,9 C 82 % 0 lf 999,8 hPa 0,0 l/m 2 min 0 min 229 W/m 31,5 km/h (5 Bft) 89,36 %
03.04.2018 10:04 13,3 C 15,6 C 13,9 C 81 % 0 lf 999,8 hPa 0,0 l/m 2 min 0 min 283 W/m 31,5 km/h (5 Bft) 89,36 %
03.04.2018 10:08 13,4 C 15,0 C 13,9 C 80 % 0 lf 999,7 hPa 0,0 l/m 4 min 0 min 233 W/m 24,8 km/h (4 Bft) 91,49 %
03.04.2018 10:10 13,4 C 15,0 C 13,9 C 80 % 0 lf 999,8 hPa 0,0 l/m 0 min 0 min 207 W/m 20,3 km/h (4 Bft) 89,36 %
03.04.2018 10:12 13,4 C 14,4 C 13,9 C 80 % 0 lf 999,7 hPa 0,0 l/m 0 min 0 min 196 W/m 18,0 km/h (3 Bft) 93,48 %
03.04.2018 10:14 13,4 C 14,4 C 13,9 C 80 % 0 lf 999,7 hPa 0,0 l/m 0 min 0 min 193 W/m 31,5 km/h (5 Bft) 89,36 %
03.04.2018 10:16 13,4 C 14,4 C 13,9 C 79 % 0 lf 999,7 hPa 0,0 l/m 0 min 0 min 212 W/m 31,5 km/h (5 Bft) 91,49 %
03.04.2018 10:18 13,5 C 15,0 C 13,9 C 79 % 0 lf 999,7 hPa 0,0 l/m 2 min 0 min 240 W/m 13,5 km/h (3 Bft) 91,49 %
03.04.2018 10:20 13,5 C 15,0 C 13,9 C 79 % 0 lf 999,7 hPa 0,0 l/m 0 min 0 min 219 W/m 29,3 km/h (5 Bft) 89,36 %
03.04.2018 10:22 13,6 C 15,0 C 13,9 C 78 % 0 lf 999,8 hPa 0,0 l/m 0 min 0 min 217 W/m 29,3 km/h (5 Bft) 89,36 %
03.04.2018 10:24 13,6 C 15,0 C 13,9 C 77 % 0 lf 999,7 hPa 0,0 l/m 0 min 0 min 217 W/m 18,0 km/h (3 Bft) 93,48 %
03.04.2018 10:26 13,6 C 15,0 C 14,4 C 77 % 0 lf 999,8 hPa 0,0 l/m 0 min 0 min 237 W/m 22,5 km/h (4 Bft) 91,49 %
03.04.2018 10:28 13,7 C 15,6 C 14,4 C 77 % 0 lf 999,8 hPa 0,0 l/m 0 min 0 min 238 W/m 20,3 km/h (4 Bft) 93,62 %
03.04.2018 10:30 13,7 C 15,6 C 14,4 C 76 % 0 lf 999,8 hPa 0,0 l/m 0 min 0 min 233 W/m 29,3 km/h (5 Bft) 91,49 %
03.04.2018 10:32 13,8 C 16,7 C 15,0 C 76 % 0 lf 999,9 hPa 0,0 l/m 2 min 0 min 321 W/m 29,3 km/h (5 Bft) 91,49 %
03.04.2018 10:34 13,8 C 16,1 C 15,0 C 74 % 0 lf 999,9 hPa 0,0 l/m 2 min 0 min 319 W/m 31,5 km/h (5 Bft) 93,62 %
03.04.2018 10:38 14,1 C 16,7 C 15,0 C 74 % 0 lf 999,9 hPa 0,0 l/m 4 min 0 min 347 W/m 29,3 km/h (5 Bft) 92,47 %
03.04.2018 10:40 14,2 C 16,7 C 15,0 C 73 % 0 lf 999,9 hPa 0,0 l/m 2 min 0 min 257 W/m 27,0 km/h (4 Bft) 93,62 %
03.04.2018 10:42 14,2 C 16,7 C 15,0 C 73 % 0 lf 999,9 hPa 0,0 l/m 0 min 0 min 256 W/m 24,8 km/h (4 Bft) 95,74 %
03.04.2018 10:44 14,2 C 16,1 C 14,4 C 72 % 0 lf 999,9 hPa 0,0 l/m 0 min 0 min 228 W/m 27,0 km/h (4 Bft) 95,74 %
03.04.2018 10:46 14,2 C 16,1 C 14,4 C 72 % 0 lf 999,9 hPa 0,0 l/m 0 min 0 min 206 W/m 20,3 km/h (4 Bft) 97,56 %
03.04.2018 10:48 14,2 C 16,1 C 14,4 C 71 % 0 lf 1000,0 hPa 0,0 l/m 0 min 0 min 228 W/m 27,0 km/h (4 Bft) 97,87 %
03.04.2018 10:50 14,3 C 16,1 C 14,4 C 71 % 0 lf 1000,0 hPa 0,0 l/m 0 min 0 min 257 W/m 29,3 km/h (5 Bft) 97,87 %
03.04.2018 10:52 14,3 C 16,1 C 15,0 C 70 % 0 lf 1000,0 hPa 0,0 l/m 2 min 0 min 295 W/m 33,8 km/h (5 Bft) 95,74 %
03.04.2018 10:54 14,4 C 17,2 C 15,0 C 70 % 0 lf 1000,0 hPa 0,0 l/m 2 min 0 min 336 W/m 27,0 km/h (4 Bft) 93,48 %
03.04.2018 10:56 14,4 C 18,3 C 15,6 C 69 % 0 lf 1000,1 hPa 0,0 l/m 2 min 0 min 334 W/m 31,5 km/h (5 Bft) 97,87 %
03.04.2018 10:58 14,6 C 18,3 C 16,1 C 69 % 0 lf 1000,0 hPa 0,0 l/m 2 min 0 min 444 W/m 29,3 km/h (5 Bft) 97,87 %
03.04.2018 11:00 14,7 C 18,3 C 16,7 C 69 % 0 lf 1000,0 hPa 0,0 l/m 2 min 0 min 391 W/m 29,3 km/h (5 Bft) 97,87 %
03.04.2018 11:02 14,8 C 18,3 C 16,7 C 69 % 0 lf 1000,0 hPa 0,0 l/m 2 min 0 min 351 W/m 18,0 km/h (3 Bft) 95,74 %
03.04.2018 11:04 14,9 C 18,3 C 16,1 C 69 % 0 lf 1000,0 hPa 0,0 l/m 2 min 0 min 315 W/m 20,3 km/h (4 Bft) 100,00 %
03.04.2018 11:08 15,0 C 17,2 C 16,1 C 67 % 0 lf 1000,0 hPa 0,0 l/m 4 min 0 min 364 W/m 36,0 km/h (5 Bft) 98,02 %
03.04.2018 11:10 15,1 C 17,2 C 15,6 C 67 % 0 lf 1000,1 hPa 0,0 l/m 2 min 0 min 336 W/m 42,8 km/h (6 Bft) 97,83 %
03.04.2018 11:12 15,0 C 16,7 C 15,6 C 67 % 0 lf 1000,1 hPa 0,0 l/m 2 min 0 min 284 W/m 38,3 km/h (5 Bft) 100,00 %
03.04.2018 11:14 15,0 C 16,1 C 15,0 C 67 % 0 lf 1000,1 hPa 0,0 l/m 0 min 0 min 249 W/m 29,3 km/h (5 Bft) 100,00 %
03.04.2018 11:16 15,0 C 16,1 C 15,0 C 68 % 0 lf 1000,2 hPa 0,0 l/m 0 min 0 min 213 W/m 31,5 km/h (5 Bft) 97,87 %
03.04.2018 11:18 15,0 C 15,6 C 14,4 C 67 % 0 lf 1000,1 hPa 0,0 l/m 0 min 0 min 186 W/m 33,8 km/h (5 Bft) 100,00 %
03.04.2018 11:20 14,9 C 15,0 C 14,4 C 67 % 0 lf 1000,4 hPa 0,0 l/m 0 min 0 min 165 W/m 36,0 km/h (5 Bft) 95,74 %
03.04.2018 11:22 14,9 C 15,0 C 13,9 C 67 % 0 lf 1000,3 hPa 0,0 l/m 0 min 0 min 141 W/m 36,0 km/h (5 Bft) 100,00 %
03.04.2018 11:24 14,8 C 15,0 C 13,9 C 67 % 0 lf 1000,2 hPa 0,0 l/m 0 min 0 min 126 W/m 31,5 km/h (5 Bft) 97,87 %
03.04.2018 11:26 14,8 C 14,4 C 13,9 C 67 % 0 lf 1000,3 hPa 0,0 l/m 0 min 0 min 120 W/m 36,0 km/h (5 Bft) 95,74 %
03.04.2018 11:28 14,7 C 14,4 C 13,3 C 67 % 0 lf 1000,4 hPa 0,0 l/m 0 min 0 min 125 W/m 36,0 km/h (5 Bft) 100,00 %
03.04.2018 11:30 14,7 C 14,4 C 13,3 C 68 % 0 lf 1000,3 hPa 0,0 l/m 0 min 0 min 121 W/m 33,8 km/h (5 Bft) 100,00 %
03.04.2018 11:32 14,6 C 14,4 C 13,3 C 68 % 0 lf 1000,2 hPa 0,0 l/m 0 min 0 min 104 W/m 18,0 km/h (3 Bft) 100,00 %
03.04.2018 11:34 14,6 C 14,4 C 13,3 C 69 % 0 lf 1000,1 hPa 0,0 l/m 0 min 0 min 97 W/m 20,3 km/h (4 Bft) 100,00 %
03.04.2018 11:38 14,4 C 14,4 C 12,8 C 69 % 0 lf 1000,2 hPa 0,0 l/m 0 min 0 min 98 W/m 33,8 km/h (5 Bft) 100,00 %
03.04.2018 11:40 14,4 C 13,9 C 12,8 C 69 % 0 lf 1000,1 hPa 0,0 l/m 0 min 2 min 99 W/m 24,8 km/h (4 Bft) 100,00 %
03.04.2018 11:42 14,3 C 13,9 C 12,8 C 69 % 0 lf 1000,2 hPa 0,0 l/m 0 min 0 min 86 W/m 31,5 km/h (5 Bft) 97,87 %
03.04.2018 11:44 14,2 C 13,9 C 12,2 C 69 % 0 lf 1000,3 hPa 0,0 l/m 0 min 0 min 67 W/m 36,0 km/h (5 Bft) 100,00 %
03.04.2018 11:46 14,2 C 13,9 C 12,2 C 69 % 0 lf 1000,1 hPa 0,0 l/m 0 min 0 min 54 W/m 27,0 km/h (4 Bft) 100,00 %
03.04.2018 11:48 14,2 C 13,9 C 12,2 C 69 % 1 lf 1000,1 hPa 0,0 l/m 0 min 2 min 55 W/m 20,3 km/h (4 Bft) 97,87 %
03.04.2018 11:50 14,2 C 13,3 C 12,2 C 70 % 4 lf 1000,0 hPa 0,0 l/m 0 min 2 min 70 W/m 27,0 km/h (4 Bft) 100,00 %
03.04.2018 11:52 14,2 C 12,2 C 11,7 C 70 % 2 lf 1000,1 hPa 0,0 l/m 0 min 2 min 99 W/m 27,0 km/h (4 Bft) 97,87 %
03.04.2018 11:54 14,1 C 12,8 C 11,1 C 71 % 0 lf 1000,0 hPa 0,0 l/m 0 min 2 min 136 W/m 24,8 km/h (4 Bft) 100,00 %
03.04.2018 11:56 13,9 C 13,3 C 11,7 C 71 % 0 lf 1000,1 hPa 0,0 l/m 0 min 0 min 176 W/m 20,3 km/h (4 Bft) 100,00 %
03.04.2018 11:58 13,9 C 14,4 C 12,8 C 72 % 0 lf 1000,1 hPa 0,0 l/m 0 min 0 min 231 W/m 15,8 km/h (3 Bft) 100,00 %
03.04.2018 12:00 13,9 C 15,6 C 13,9 C 72 % 0 lf 1000,1 hPa 0,0 l/m 0 min 0 min 295 W/m 27,0 km/h (4 Bft) 95,74 %
03.04.2018 12:02 14,0 C 17,2 C 15,0 C 72 % 0 lf 1000,1 hPa 0,0 l/m 2 min 0 min 417 W/m 20,3 km/h (4 Bft) 97,87 %
03.04.2018 12:04 14,1 C 17,2 C 15,6 C 72 % 0 lf 1000,2 hPa 0,0 l/m 2 min 0 min 395 W/m 42,8 km/h (6 Bft) 100,00 %
03.04.2018 12:08 14,2 C 16,7 C 15,0 C 70 % 0 lf 1000,2 hPa 0,0 l/m 4 min 0 min 322 W/m 38,3 km/h (5 Bft) 98,92 %
03.04.2018 12:10 14,2 C 16,7 C 15,6 C 70 % 0 lf 1000,2 hPa 0,0 l/m 2 min 0 min 339 W/m 31,5 km/h (5 Bft) 100,00 %
03.04.2018 12:12 14,2 C 17,2 C 15,6 C 70 % 0 lf 1000,2 hPa 0,0 l/m 2 min 0 min 349 W/m 22,5 km/h (4 Bft) 97,87 %
03.04.2018 12:14 14,3 C 17,8 C 16,1 C 70 % 0 lf 1000,2 hPa 0,0 l/m 2 min 0 min 404 W/m 20,3 km/h (4 Bft) 95,74 %
03.04.2018 12:16 14,4 C 18,3 C 16,7 C 71 % 0 lf 1000,2 hPa 0,0 l/m 2 min 0 min 365 W/m 22,5 km/h (4 Bft) 91,49 %
03.04.2018 12:18 14,6 C 17,8 C 16,7 C 70 % 0 lf 1000,1 hPa 0,0 l/m 2 min 0 min 390 W/m 27,0 km/h (4 Bft) 93,62 %
03.04.2018 12:20 14,6 C 16,7 C 16,1 C 69 % 0 lf 1000,1 hPa 0,0 l/m 2 min 0 min 379 W/m 42,8 km/h (6 Bft) 95,65 %
03.04.2018 12:22 14,7 C 16,7 C 16,1 C 69 % 0 lf 1000,1 hPa 0,0 l/m 2 min 0 min 327 W/m 31,5 km/h (5 Bft) 95,74 %
03.04.2018 12:24 14,7 C 16,1 C 15,6 C 68 % 0 lf 1000,2 hPa 0,0 l/m 0 min 0 min 298 W/m 29,3 km/h (5 Bft) 93,62 %
03.04.2018 12:26 14,7 C 15,6 C 15,6 C 68 % 0 lf 1000,3 hPa 0,0 l/m 0 min 0 min 252 W/m 27,0 km/h (4 Bft) 95,74 %
03.04.2018 12:28 14,8 C 15,6 C 15,0 C 68 % 0 lf 1000,3 hPa 0,0 l/m 0 min 0 min 207 W/m 24,8 km/h (4 Bft) 95,74 %
03.04.2018 12:30 14,8 C 15,6 C 15,0 C 68 % 0 lf 1000,4 hPa 0,0 l/m 0 min 0 min 187 W/m 29,3 km/h (5 Bft) 95,74 %
03.04.2018 12:32 14,8 C 15,6 C 15,0 C 68 % 0 lf 1000,3 hPa 0,0 l/m 0 min 0 min 187 W/m 24,8 km/h (4 Bft) 91,30 %
03.04.2018 12:34 14,8 C 15,0 C 14,4 C 67 % 0 lf 1000,4 hPa 0,0 l/m 0 min 0 min 180 W/m 33,8 km/h (5 Bft) 97,87 %
03.04.2018 12:38 14,8 C 15,0 C 14,4 C 67 % 0 lf 1000,4 hPa 0,0 l/m 0 min 0 min 156 W/m 20,3 km/h (4 Bft) 95,74 %
03.04.2018 12:40 14,8 C 15,0 C 13,9 C 68 % 0 lf 1000,5 hPa 0,0 l/m 0 min 0 min 131 W/m 24,8 km/h (4 Bft) 95,74 %
03.04.2018 12:42 14,7 C 15,0 C 13,9 C 68 % 0 lf 1000,5 hPa 0,0 l/m 0 min 0 min 116 W/m 18,0 km/h (3 Bft) 95,74 %
03.04.2018 12:44 14,7 C 14,4 C 13,9 C 68 % 1 lf 1000,5 hPa 0,0 l/m 0 min 0 min 106 W/m 18,0 km/h (3 Bft) 91,30 %
03.04.2018 12:46 14,7 C 14,4 C 13,9 C 68 % 0 lf 1000,5 hPa 0,0 l/m 0 min 2 min 95 W/m 15,8 km/h (3 Bft) 93,62 %
03.04.2018 12:48 14,6 C 14,4 C 12,8 C 68 % 1 lf 1000,5 hPa 0,0 l/m 0 min 2 min 91 W/m 36,0 km/h (5 Bft) 95,74 %
03.04.2018 12:50 14,6 C 13,3 C 12,2 C 69 % 4 lf 1000,5 hPa 0,0 l/m 0 min 2 min 104 W/m 24,8 km/h (4 Bft) 95,74 %
03.04.2018 12:52 14,4 C 13,9 C 11,7 C 70 % 2 lf 1000,5 hPa 0,0 l/m 0 min 2 min 148 W/m 18,0 km/h (3 Bft) 95,74 %
03.04.2018 12:54 14,4 C 14,4 C 11,7 C 71 % 0 lf 1000,5 hPa 0,0 l/m 0 min 2 min 212 W/m 22,5 km/h (4 Bft) 97,87 %
03.04.2018 12:56 14,3 C 14,4 C 12,2 C 71 % 0 lf 1000,5 hPa 0,0 l/m 0 min 0 min 232 W/m 27,0 km/h (4 Bft) 97,83 %
03.04.2018 12:58 14,3 C 15,0 C 12,8 C 71 % 0 lf 1000,5 hPa 0,0 l/m 0 min 0 min 211 W/m 22,5 km/h (4 Bft) 95,74 %
03.04.2018 13:00 14,3 C 15,0 C 13,3 C 72 % 0 lf 1000,5 hPa 0,0 l/m 0 min 0 min 187 W/m 13,5 km/h (3 Bft) 95,74 %
03.04.2018 13:02 14,2 C 15,0 C 13,3 C 71 % 0 lf 1000,5 hPa 0,0 l/m 0 min 0 min 177 W/m 24,8 km/h (4 Bft) 95,74 %
03.04.2018 13:04 14,2 C 15,0 C 13,3 C 71 % 0 lf 1000,5 hPa 0,0 l/m 0 min 0 min 166 W/m 20,3 km/h (4 Bft) 95,74 %
03.04.2018 13:08 14,2 C 15,0 C 13,9 C 71 % 0 lf 1000,5 hPa 0,0 l/m 0 min 0 min 174 W/m 29,3 km/h (5 Bft) 95,70 %
03.04.2018 13:10 14,2 C 15,6 C 13,9 C 71 % 0 lf 1000,4 hPa 0,0 l/m 0 min 0 min 184 W/m 24,8 km/h (4 Bft) 97,87 %
03.04.2018 13:12 14,2 C 15,6 C 13,9 C 71 % 0 lf 1000,4 hPa 0,0 l/m 0 min 0 min 206 W/m 20,3 km/h (4 Bft) 93,62 %
03.04.2018 13:14 14,2 C 16,1 C 14,4 C 71 % 0 lf 1000,4 hPa 0,0 l/m 0 min 0 min 266 W/m 27,0 km/h (4 Bft) 97,87 %
03.04.2018 13:16 14,2 C 16,1 C 15,0 C 71 % 0 lf 1000,4 hPa 0,0 l/m 0 min 0 min 315 W/m 22,5 km/h (4 Bft) 97,87 %
03.04.2018 13:18 14,3 C 16,1 C 15,0 C 71 % 0 lf 1000,4 hPa 0,0 l/m 0 min 0 min 306 W/m 24,8 km/h (4 Bft) 95,65 %
03.04.2018 13:20 14,4 C 16,7 C 15,6 C 70 % 0 lf 1000,4 hPa 0,0 l/m 2 min 0 min 353 W/m 24,8 km/h (4 Bft) 97,87 %
03.04.2018 13:22 14,4 C 17,8 C 16,1 C 70 % 0 lf 1000,5 hPa 0,0 l/m 2 min 0 min 451 W/m 20,3 km/h (4 Bft) 97,87 %
03.04.2018 13:24 14,6 C 18,9 C 17,2 C 70 % 0 lf 1000,4 hPa 0,0 l/m 2 min 0 min 613 W/m 20,3 km/h (4 Bft) 93,62 %
03.04.2018 13:26 14,7 C 18,9 C 16,7 C 70 % 0 lf 1000,4 hPa 0,0 l/m 2 min 0 min 552 W/m 24,8 km/h (4 Bft) 93,62 %
03.04.2018 13:28 14,8 C 19,4 C 17,2 C 70 % 0 lf 1000,4 hPa 0,0 l/m 2 min 0 min 429 W/m 18,0 km/h (3 Bft) 95,74 %
03.04.2018 13:30 15,0 C 18,9 C 17,2 C 69 % 0 lf 1000,4 hPa 0,0 l/m 2 min 0 min 367 W/m 29,3 km/h (5 Bft) 95,65 %
03.04.2018 13:32 15,1 C 18,3 C 16,7 C 68 % 0 lf 1000,5 hPa 0,0 l/m 0 min 0 min 336 W/m 27,0 km/h (4 Bft) 95,74 %
03.04.2018 13:34 15,1 C 17,8 C 16,1 C 66 % 0 lf 1000,4 hPa 0,0 l/m 2 min 0 min 344 W/m 27,0 km/h (4 Bft) 93,62 %
03.04.2018 13:38 15,2 C 17,8 C 16,7 C 67 % 0 lf 1000,4 hPa 0,0 l/m 4 min 0 min 427 W/m 27,0 km/h (4 Bft) 95,74 %
03.04.2018 13:40 15,3 C 18,3 C 17,2 C 66 % 0 lf 1000,4 hPa 0,0 l/m 2 min 0 min 447 W/m 22,5 km/h (4 Bft) 93,62 %
03.04.2018 13:42 15,4 C 18,3 C 17,2 C 67 % 0 lf 1000,3 hPa 0,0 l/m 2 min 0 min 439 W/m 20,3 km/h (4 Bft) 95,12 %
03.04.2018 13:44 15,4 C 18,9 C 17,2 C 67 % 0 lf 1000,5 hPa 0,0 l/m 2 min 0 min 444 W/m 24,8 km/h (4 Bft) 95,74 %
03.04.2018 13:46 15,6 C 18,9 C 17,8 C 66 % 0 lf 1000,5 hPa 0,0 l/m 2 min 0 min 495 W/m 27,0 km/h (4 Bft) 95,83 %
03.04.2018 13:48 15,6 C 19,4 C 17,8 C 65 % 0 lf 1000,5 hPa 0,0 l/m 2 min 0 min 537 W/m 27,0 km/h (4 Bft) 95,74 %
03.04.2018 13:50 15,7 C 18,9 C 17,8 C 66 % 0 lf 1000,5 hPa 0,0 l/m 2 min 2 min 516 W/m 36,0 km/h (5 Bft) 97,83 %
03.04.2018 13:52 15,7 C 18,3 C 17,2 C 65 % 0 lf 1000,6 hPa 0,0 l/m 2 min 0 min 425 W/m 29,3 km/h (5 Bft) 95,74 %
03.04.2018 13:54 15,7 C 17,2 C 16,7 C 65 % 0 lf 1000,5 hPa 0,0 l/m 2 min 0 min 375 W/m 24,8 km/h (4 Bft) 93,62 %
03.04.2018 13:56 15,7 C 16,7 C 16,1 C 64 % 1 lf 1000,5 hPa 0,0 l/m 0 min 0 min 289 W/m 38,3 km/h (5 Bft) 95,74 %
03.04.2018 13:58 15,7 C 16,7 C 15,6 C 65 % 0 lf 1000,4 hPa 0,0 l/m 0 min 0 min 232 W/m 27,0 km/h (4 Bft) 97,87 %
03.04.2018 14:00 15,6 C 16,1 C 15,6 C 65 % 0 lf 1000,4 hPa 0,0 l/m 0 min 0 min 197 W/m 27,0 km/h (4 Bft) 97,87 %
03.04.2018 14:02 15,6 C 16,1 C 15,6 C 65 % 0 lf 1000,3 hPa 0,0 l/m 0 min 0 min 189 W/m 27,0 km/h (4 Bft) 95,65 %
03.04.2018 14:04 15,5 C 15,6 C 15,0 C 65 % 0 lf 1000,3 hPa 0,0 l/m 0 min 2 min 173 W/m 33,8 km/h (5 Bft) 97,87 %
03.04.2018 14:08 15,4 C 16,1 C 15,0 C 66 % 1 lf 1000,4 hPa 0,0 l/m 0 min 0 min 148 W/m 15,8 km/h (3 Bft) 96,81 %
03.04.2018 14:10 15,4 C 16,1 C 14,4 C 67 % 1 lf 1000,4 hPa 0,0 l/m 0 min 2 min 136 W/m 15,8 km/h (3 Bft) 97,87 %
03.04.2018 14:12 15,4 C 15,6 C 13,9 C 67 % 2 lf 1000,4 hPa 0,0 l/m 0 min 2 min 151 W/m 20,3 km/h (4 Bft) 97,83 %
03.04.2018 14:14 15,4 C 15,6 C 13,3 C 67 % 1 lf 1000,3 hPa 0,0 l/m 0 min 2 min 180 W/m 11,3 km/h (2 Bft) 97,87 %
03.04.2018 14:16 15,4 C 15,6 C 13,3 C 68 % 1 lf 1000,3 hPa 0,0 l/m 0 min 0 min 208 W/m 15,8 km/h (3 Bft) 95,83 %
03.04.2018 14:18 15,3 C 15,6 C 13,9 C 68 % 0 lf 1000,3 hPa 0,0 l/m 0 min 2 min 261 W/m 15,8 km/h (3 Bft) 95,74 %
03.04.2018 14:20 15,3 C 16,1 C 15,0 C 67 % 0 lf 1000,2 hPa 0,0 l/m 0 min 0 min 308 W/m 22,5 km/h (4 Bft) 95,74 %
03.04.2018 14:22 15,3 C 16,1 C 15,6 C 67 % 0 lf 1000,2 hPa 0,0 l/m 0 min 0 min 304 W/m 20,3 km/h (4 Bft) 97,87 %
03.04.2018 14:24 15,3 C 17,2 C 16,1 C 67 % 0 lf 1000,2 hPa 0,0 l/m 0 min 0 min 304 W/m 18,0 km/h (3 Bft) 100,00 %
03.04.2018 14:26 15,3 C 17,2 C 16,1 C 68 % 0 lf 1000,2 hPa 0,0 l/m 0 min 0 min 306 W/m 15,8 km/h (3 Bft) 100,00 %
03.04.2018 14:28 15,4 C 16,7 C 16,7 C 67 % 0 lf 1000,2 hPa 0,0 l/m 0 min 0 min 310 W/m 22,5 km/h (4 Bft) 97,87 %
03.04.2018 14:30 15,4 C 17,2 C 16,7 C 67 % 0 lf 1000,2 hPa 0,0 l/m 0 min 0 min 322 W/m 20,3 km/h (4 Bft) 97,87 %
03.04.2018 14:32 15,4 C 17,2 C 16,7 C 68 % 0 lf 1000,2 hPa 0,0 l/m 0 min 0 min 326 W/m 27,0 km/h (4 Bft) 95,74 %
03.04.2018 14:34 15,4 C 17,2 C 16,7 C 67 % 0 lf 1000,2 hPa 0,0 l/m 2 min 0 min 338 W/m 24,8 km/h (4 Bft) 95,74 %
03.04.2018 14:38 15,6 C 18,3 C 17,2 C 67 % 0 lf 1000,2 hPa 0,0 l/m 4 min 0 min 413 W/m 22,5 km/h (4 Bft) 95,70 %
03.04.2018 14:40 15,6 C 20,0 C 17,8 C 67 % 0 lf 1000,1 hPa 0,0 l/m 2 min 0 min 536 W/m 22,5 km/h (4 Bft) 97,87 %
03.04.2018 14:42 15,7 C 20,0 C 17,8 C 67 % 0 lf 1000,1 hPa 0,0 l/m 2 min 0 min 553 W/m 22,5 km/h (4 Bft) 97,87 %
03.04.2018 14:44 15,8 C 18,9 C 17,8 C 66 % 0 lf 1000,1 hPa 0,0 l/m 2 min 0 min 376 W/m 27,0 km/h (4 Bft) 97,87 %
03.04.2018 14:46 15,9 C 18,9 C 17,8 C 66 % 0 lf 1000,0 hPa 0,0 l/m 2 min 0 min 363 W/m 22,5 km/h (4 Bft) 97,87 %
03.04.2018 14:48 15,9 C 18,9 C 17,8 C 66 % 0 lf 1000,1 hPa 0,0 l/m 2 min 0 min 385 W/m 27,0 km/h (4 Bft) 97,83 %
03.04.2018 14:50 16,0 C 18,3 C 17,8 C 66 % 0 lf 1000,1 hPa 0,0 l/m 2 min 0 min 347 W/m 36,0 km/h (5 Bft) 95,74 %
03.04.2018 14:52 16,1 C 17,2 C 17,2 C 65 % 0 lf 1000,0 hPa 0,0 l/m 0 min 0 min 324 W/m 24,8 km/h (4 Bft) 93,62 %
03.04.2018 14:54 16,1 C 17,2 C 17,2 C 64 % 0 lf 1000,0 hPa 0,0 l/m 0 min 0 min 286 W/m 24,8 km/h (4 Bft) 95,74 %
03.04.2018 14:56 16,1 C 17,2 C 17,2 C 64 % 0 lf 1000,0 hPa 0,0 l/m 0 min 0 min 245 W/m 20,3 km/h (4 Bft) 93,62 %
03.04.2018 14:58 16,1 C 16,7 C 16,7 C 65 % 0 lf 1000,0 hPa 0,0 l/m 0 min 0 min 216 W/m 15,8 km/h (3 Bft) 93,62 %
03.04.2018 15:00 16,1 C 16,7 C 16,7 C 65 % 0 lf 1000,0 hPa 0,0 l/m 0 min 0 min 203 W/m 20,3 km/h (4 Bft) 97,83 %
03.04.2018 15:02 16,2 C 16,7 C 16,7 C 65 % 0 lf 1000,0 hPa 0,0 l/m 0 min 0 min 211 W/m 24,8 km/h (4 Bft) 95,74 %
03.04.2018 15:04 16,1 C 16,1 C 16,1 C 65 % 0 lf 1000,0 hPa 0,0 l/m 0 min 2 min 214 W/m 24,8 km/h (4 Bft) 95,74 %
03.04.2018 15:08 16,1 C 13,9 C 13,9 C 69 % 0 lf 999,9 hPa 0,0 l/m 0 min 4 min 222 W/m 27,0 km/h (4 Bft) 95,74 %
03.04.2018 15:10 16,1 C 13,9 C 13,3 C 69 % 0 lf 999,8 hPa 0,0 l/m 0 min 2 min 205 W/m 18,0 km/h (3 Bft) 93,48 %
03.04.2018 15:12 16,0 C 14,4 C 13,3 C 70 % 0 lf 999,7 hPa 0,0 l/m 0 min 2 min 185 W/m 20,3 km/h (4 Bft) 95,74 %
03.04.2018 15:14 15,9 C 14,4 C 13,9 C 70 % 0 lf 999,8 hPa 0,0 l/m 0 min 2 min 176 W/m 22,5 km/h (4 Bft) 95,74 %
03.04.2018 15:16 15,8 C 15,0 C 14,4 C 70 % 0 lf 999,9 hPa 0,0 l/m 0 min 0 min 178 W/m 13,5 km/h (3 Bft) 95,74 %
03.04.2018 15:18 15,8 C 15,6 C 14,4 C 71 % 0 lf 999,9 hPa 0,0 l/m 0 min 0 min 200 W/m 18,0 km/h (3 Bft) 95,74 %
03.04.2018 15:20 15,7 C 15,6 C 15,0 C 70 % 0 lf 1000,0 hPa 0,0 l/m 0 min 0 min 246 W/m 20,3 km/h (4 Bft) 97,87 %
03.04.2018 15:22 15,7 C 16,1 C 15,6 C 70 % 0 lf 999,9 hPa 0,0 l/m 0 min 0 min 264 W/m 13,5 km/h (3 Bft) 97,87 %
03.04.2018 15:24 15,7 C 16,1 C 16,1 C 70 % 0 lf 999,9 hPa 0,0 l/m 0 min 0 min 253 W/m 15,8 km/h (3 Bft) 97,83 %
03.04.2018 15:26 15,7 C 16,7 C 16,7 C 71 % 0 lf 999,9 hPa 0,0 l/m 0 min 0 min 274 W/m 11,3 km/h (2 Bft) 95,74 %
03.04.2018 15:28 15,7 C 16,7 C 16,7 C 71 % 0 lf 999,9 hPa 0,0 l/m 0 min 0 min 265 W/m 15,8 km/h (3 Bft) 97,87 %
03.04.2018 15:30 15,7 C 16,7 C 16,7 C 71 % 0 lf 999,9 hPa 0,0 l/m 0 min 0 min 261 W/m 18,0 km/h (3 Bft) 100,00 %
03.04.2018 15:32 15,7 C 16,7 C 16,7 C 70 % 0 lf 999,9 hPa 0,0 l/m 0 min 0 min 268 W/m 18,0 km/h (3 Bft) 95,74 %
03.04.2018 15:34 15,7 C 16,7 C 16,7 C 69 % 0 lf 1000,0 hPa 0,0 l/m 0 min 0 min 257 W/m 24,8 km/h (4 Bft) 100,00 %
03.04.2018 15:38 15,7 C 16,1 C 16,1 C 68 % 0 lf 999,9 hPa 0,0 l/m 0 min 0 min 204 W/m 20,3 km/h (4 Bft) 100,00 %
03.04.2018 15:40 15,7 C 16,1 C 16,1 C 68 % 0 lf 999,9 hPa 0,0 l/m 0 min 0 min 172 W/m 18,0 km/h (3 Bft) 97,87 %
03.04.2018 15:42 15,7 C 16,1 C 15,6 C 68 % 0 lf 999,9 hPa 0,0 l/m 0 min 0 min 144 W/m 15,8 km/h (3 Bft) 97,87 %
03.04.2018 15:44 15,7 C 16,1 C 15,6 C 68 % 3 lf 1000,0 hPa 0,0 l/m 0 min 0 min 120 W/m 18,0 km/h (3 Bft) 95,74 %
03.04.2018 15:46 15,7 C 15,6 C 14,4 C 68 % 2 lf 999,9 hPa 0,0 l/m 0 min 2 min 106 W/m 18,0 km/h (3 Bft) 100,00 %
03.04.2018 15:48 15,7 C 15,0 C 13,9 C 69 % 4 lf 999,9 hPa 0,0 l/m 0 min 2 min 115 W/m 18,0 km/h (3 Bft) 97,87 %
03.04.2018 15:50 15,7 C 13,9 C 13,3 C 70 % 13 lf 999,9 hPa 0,0 l/m 0 min 2 min 141 W/m 11,3 km/h (2 Bft) 100,00 %
03.04.2018 15:52 15,7 C 14,4 C 12,8 C 70 % 11 lf 999,9 hPa 0,0 l/m 0 min 2 min 168 W/m 15,8 km/h (3 Bft) 97,87 %
03.04.2018 15:54 15,7 C 15,0 C 13,3 C 71 % 3 lf 1000,0 hPa 0,0 l/m 0 min 0 min 178 W/m 20,3 km/h (4 Bft) 97,87 %
03.04.2018 15:56 15,6 C 15,0 C 13,3 C 70 % 0 lf 999,9 hPa 0,0 l/m 0 min 0 min 183 W/m 13,5 km/h (3 Bft) 100,00 %
03.04.2018 15:58 15,7 C 15,6 C 13,9 C 71 % 0 lf 999,8 hPa 0,0 l/m 0 min 0 min 191 W/m 11,3 km/h (2 Bft) 100,00 %
03.04.2018 16:00 15,7 C 16,1 C 14,4 C 72 % 0 lf 999,9 hPa 0,0 l/m 0 min 0 min 192 W/m 13,5 km/h (3 Bft) 100,00 %
03.04.2018 16:02 15,7 C 16,1 C 14,4 C 72 % 0 lf 999,7 hPa 0,0 l/m 0 min 0 min 187 W/m 11,3 km/h (2 Bft) 97,87 %
03.04.2018 16:04 15,7 C 16,7 C 15,0 C 72 % 0 lf 999,8 hPa 0,0 l/m 0 min 0 min 178 W/m 13,5 km/h (3 Bft) 93,62 %
03.04.2018 16:08 15,7 C 16,7 C 15,0 C 72 % 0 lf 999,7 hPa 0,0 l/m 0 min 0 min 196 W/m 13,5 km/h (3 Bft) 97,87 %
03.04.2018 16:10 15,7 C 17,8 C 15,6 C 72 % 0 lf 999,7 hPa 0,0 l/m 2 min 0 min 336 W/m 13,5 km/h (3 Bft) 97,83 %
03.04.2018 16:12 15,7 C 18,9 C 16,7 C 72 % 0 lf 999,6 hPa 0,0 l/m 2 min 0 min 360 W/m 9,0 km/h (2 Bft) 97,87 %
03.04.2018 16:14 15,8 C 18,9 C 17,2 C 72 % 0 lf 999,6 hPa 0,0 l/m 2 min 0 min 384 W/m 13,5 km/h (3 Bft) 93,62 %
03.04.2018 16:16 15,8 C 20,0 C 17,8 C 71 % 0 lf 999,6 hPa 0,0 l/m 2 min 0 min 398 W/m 11,3 km/h (2 Bft) 95,83 %
03.04.2018 16:18 15,9 C 21,7 C 18,3 C 72 % 0 lf 999,6 hPa 0,0 l/m 2 min 0 min 413 W/m 13,5 km/h (3 Bft) 97,87 %
03.04.2018 16:20 16,1 C 22,2 C 18,3 C 72 % 0 lf 999,6 hPa 0,0 l/m 2 min 0 min 558 W/m 15,8 km/h (3 Bft) 97,87 %
03.04.2018 16:22 16,2 C 21,1 C 18,3 C 71 % 0 lf 999,6 hPa 0,0 l/m 2 min 0 min 721 W/m 13,5 km/h (3 Bft) 93,48 %
03.04.2018 16:24 16,3 C 19,4 C 17,8 C 70 % 0 lf 999,5 hPa 0,0 l/m 2 min 0 min 575 W/m 13,5 km/h (3 Bft) 97,87 %
03.04.2018 16:26 16,4 C 18,9 C 17,8 C 69 % 0 lf 999,5 hPa 0,0 l/m 0 min 0 min 214 W/m 27,0 km/h (4 Bft) 95,74 %
03.04.2018 16:28 16,5 C 18,9 C 17,2 C 68 % 0 lf 999,5 hPa 0,0 l/m 0 min 0 min 251 W/m 22,5 km/h (4 Bft) 93,62 %
03.04.2018 16:30 16,6 C 18,3 C 17,2 C 68 % 0 lf 999,6 hPa 0,0 l/m 0 min 0 min 237 W/m 22,5 km/h (4 Bft) 97,87 %
03.04.2018 16:32 16,6 C 18,9 C 17,2 C 68 % 0 lf 999,5 hPa 0,0 l/m 0 min 0 min 225 W/m 15,8 km/h (3 Bft) 93,48 %
03.04.2018 16:34 16,7 C 18,9 C 17,8 C 68 % 0 lf 999,4 hPa 0,0 l/m 2 min 0 min 368 W/m 13,5 km/h (3 Bft) 97,87 %
03.04.2018 16:38 16,8 C 18,9 C 17,8 C 67 % 0 lf 999,5 hPa 0,0 l/m 0 min 0 min 231 W/m 22,5 km/h (4 Bft) 95,74 %
03.04.2018 16:40 16,8 C 20,0 C 17,8 C 67 % 0 lf 999,4 hPa 0,0 l/m 2 min 0 min 415 W/m 15,8 km/h (3 Bft) 93,62 %
03.04.2018 16:42 16,9 C 20,0 C 17,8 C 67 % 0 lf 999,4 hPa 0,0 l/m 2 min 0 min 545 W/m 11,3 km/h (2 Bft) 95,74 %
03.04.2018 16:44 17,0 C 19,4 C 18,3 C 67 % 0 lf 999,4 hPa 0,0 l/m 2 min 0 min 328 W/m 13,5 km/h (3 Bft) 93,48 %
03.04.2018 16:46 17,1 C 19,4 C 17,8 C 66 % 0 lf 999,5 hPa 0,0 l/m 2 min 0 min 358 W/m 20,3 km/h (4 Bft) 93,62 %
03.04.2018 16:48 17,2 C 20,0 C 17,8 C 66 % 0 lf 999,4 hPa 0,0 l/m 2 min 0 min 475 W/m 27,0 km/h (4 Bft) 93,62 %
03.04.2018 16:50 17,2 C 19,4 C 17,8 C 65 % 0 lf 999,4 hPa 0,0 l/m 2 min 0 min 478 W/m 31,5 km/h (5 Bft) 91,49 %
03.04.2018 16:52 17,3 C 19,4 C 17,2 C 64 % 0 lf 999,2 hPa 0,0 l/m 2 min 0 min 452 W/m 33,8 km/h (5 Bft) 91,49 %
03.04.2018 16:54 17,3 C 19,4 C 17,2 C 64 % 0 lf 999,3 hPa 0,0 l/m 2 min 0 min 435 W/m 29,3 km/h (5 Bft) 93,62 %
03.04.2018 16:56 17,4 C 20,0 C 17,2 C 64 % 0 lf 999,2 hPa 0,0 l/m 2 min 0 min 508 W/m 20,3 km/h (4 Bft) 91,30 %
03.04.2018 16:58 17,5 C 19,4 C 17,2 C 65 % 0 lf 999,3 hPa 0,0 l/m 2 min 0 min 370 W/m 29,3 km/h (5 Bft) 95,74 %
03.04.2018 17:00 17,6 C 18,9 C 17,2 C 63 % 0 lf 999,3 hPa 0,0 l/m 2 min 0 min 245 W/m 29,3 km/h (5 Bft) 97,87 %
03.04.2018 17:02 17,6 C 18,3 C 17,2 C 62 % 0 lf 999,3 hPa 0,0 l/m 2 min 0 min 275 W/m 40,6 km/h (6 Bft) 93,62 %
03.04.2018 17:04 17,7 C 18,9 C 17,2 C 62 % 0 lf 999,2 hPa 0,0 l/m 2 min 0 min 357 W/m 36,0 km/h (5 Bft) 97,87 %
03.04.2018 17:08 17,8 C 18,9 C 17,8 C 61 % 0 lf 999,3 hPa 0,0 l/m 4 min 0 min 378 W/m 38,3 km/h (5 Bft) 93,55 %
03.04.2018 17:10 17,8 C 18,3 C 17,8 C 61 % 0 lf 999,2 hPa 0,0 l/m 2 min 0 min 264 W/m 29,3 km/h (5 Bft) 95,74 %
03.04.2018 17:12 17,8 C 18,3 C 17,8 C 61 % 0 lf 999,3 hPa 0,0 l/m 2 min 0 min 264 W/m 33,8 km/h (5 Bft) 93,62 %
03.04.2018 17:14 17,8 C 18,3 C 17,8 C 61 % 0 lf 999,1 hPa 0,0 l/m 2 min 0 min 253 W/m 29,3 km/h (5 Bft) 97,87 %
03.04.2018 17:16 17,7 C 18,3 C 17,8 C 61 % 0 lf 999,2 hPa 0,0 l/m 2 min 0 min 245 W/m 29,3 km/h (5 Bft) 93,75 %
03.04.2018 17:18 17,7 C 18,3 C 17,8 C 62 % 0 lf 999,1 hPa 0,0 l/m 2 min 0 min 284 W/m 31,5 km/h (5 Bft) 95,74 %
03.04.2018 17:20 17,7 C 17,8 C 17,8 C 61 % 0 lf 999,0 hPa 0,0 l/m 2 min 0 min 363 W/m 40,6 km/h (6 Bft) 97,92 %
03.04.2018 17:22 17,7 C 17,8 C 17,2 C 62 % 0 lf 999,0 hPa 0,0 l/m 2 min 0 min 292 W/m 33,8 km/h (5 Bft) 95,74 %
03.04.2018 17:24 17,7 C 17,8 C 17,2 C 62 % 0 lf 999,0 hPa 0,0 l/m 0 min 0 min 202 W/m 40,6 km/h (6 Bft) 91,30 %
03.04.2018 17:26 17,6 C 17,2 C 16,7 C 62 % 0 lf 999,0 hPa 0,0 l/m 0 min 0 min 156 W/m 45,1 km/h (6 Bft) 95,74 %
03.04.2018 17:28 17,5 C 17,2 C 16,1 C 62 % 0 lf 999,0 hPa 0,0 l/m 0 min 0 min 122 W/m 31,5 km/h (5 Bft) 95,74 %
03.04.2018 17:30 17,4 C 17,2 C 16,1 C 62 % 0 lf 999,0 hPa 0,0 l/m 0 min 0 min 125 W/m 27,0 km/h (4 Bft) 95,74 %
03.04.2018 17:32 17,4 C 17,2 C 16,1 C 62 % 0 lf 999,0 hPa 0,0 l/m 0 min 0 min 155 W/m 27,0 km/h (4 Bft) 97,87 %
03.04.2018 17:34 17,3 C 16,7 C 16,1 C 62 % 0 lf 999,1 hPa 0,0 l/m 0 min 0 min 160 W/m 49,6 km/h (6 Bft) 93,62 %
03.04.2018 17:38 17,2 C 16,7 C 16,1 C 62 % 0 lf 999,1 hPa 0,0 l/m 0 min 0 min 160 W/m 38,3 km/h (5 Bft) 95,70 %
03.04.2018 17:40 17,1 C 16,7 C 16,1 C 62 % 0 lf 999,0 hPa 0,0 l/m 0 min 0 min 157 W/m 40,6 km/h (6 Bft) 93,62 %
03.04.2018 17:42 17,0 C 16,7 C 15,6 C 62 % 0 lf 999,1 hPa 0,0 l/m 0 min 0 min 140 W/m 33,8 km/h (5 Bft) 95,74 %
03.04.2018 17:44 16,9 C 16,7 C 15,6 C 63 % 0 lf 999,1 hPa 0,0 l/m 0 min 0 min 136 W/m 29,3 km/h (5 Bft) 95,74 %
03.04.2018 17:46 16,9 C 16,7 C 15,6 C 63 % 0 lf 998,9 hPa 0,0 l/m 0 min 0 min 134 W/m 24,8 km/h (4 Bft) 97,87 %
03.04.2018 17:48 16,8 C 16,7 C 15,6 C 63 % 0 lf 999,0 hPa 0,0 l/m 0 min 0 min 125 W/m 38,3 km/h (5 Bft) 95,65 %
03.04.2018 17:50 16,8 C 16,7 C 15,6 C 63 % 0 lf 998,9 hPa 0,0 l/m 0 min 0 min 111 W/m 33,8 km/h (5 Bft) 97,87 %
03.04.2018 17:52 16,7 C 16,7 C 15,6 C 64 % 0 lf 999,0 hPa 0,0 l/m 0 min 0 min 111 W/m 36,0 km/h (5 Bft) 95,74 %
03.04.2018 17:54 16,7 C 16,7 C 15,6 C 64 % 0 lf 999,1 hPa 0,0 l/m 0 min 0 min 124 W/m 29,3 km/h (5 Bft) 95,74 %
03.04.2018 17:56 16,7 C 16,7 C 15,6 C 64 % 0 lf 999,1 hPa 0,0 l/m 0 min 0 min 151 W/m 22,5 km/h (4 Bft) 95,74 %
03.04.2018 17:58 16,7 C 16,7 C 16,1 C 64 % 0 lf 999,0 hPa 0,0 l/m 2 min 0 min 167 W/m 22,5 km/h (4 Bft) 97,87 %
03.04.2018 18:00 16,6 C 17,2 C 16,1 C 64 % 0 lf 999,0 hPa 0,0 l/m 2 min 0 min 170 W/m 24,8 km/h (4 Bft) 97,83 %
03.04.2018 18:02 16,7 C 17,2 C 16,1 C 65 % 0 lf 999,1 hPa 0,0 l/m 0 min 0 min 160 W/m 22,5 km/h (4 Bft) 93,62 %
03.04.2018 18:04 16,7 C 17,2 C 16,1 C 65 % 0 lf 999,1 hPa 0,0 l/m 0 min 0 min 133 W/m 18,0 km/h (3 Bft) 97,87 %
03.04.2018 18:08 16,6 C 16,7 C 15,6 C 65 % 0 lf 999,0 hPa 0,0 l/m 0 min 4 min 110 W/m 42,8 km/h (6 Bft) 98,94 %
03.04.2018 18:12 16,6 C 16,1 C 15,6 C 66 % 0 lf 999,1 hPa 0,0 l/m 0 min 0 min 118 W/m 31,5 km/h (5 Bft) 100,00 %
03.04.2018 18:14 16,6 C 16,1 C 15,6 C 66 % 0 lf 999,2 hPa 0,0 l/m 0 min 0 min 101 W/m 29,3 km/h (5 Bft) 100,00 %
03.04.2018 18:16 16,4 C 16,1 C 15,0 C 65 % 0 lf 999,1 hPa 0,0 l/m 0 min 0 min 87 W/m 31,5 km/h (5 Bft) 97,83 %
03.04.2018 18:18 16,4 C 15,6 C 15,0 C 65 % 0 lf 999,1 hPa 0,0 l/m 0 min 0 min 79 W/m 45,1 km/h (6 Bft) 97,87 %
03.04.2018 18:20 16,3 C 15,6 C 14,4 C 66 % 0 lf 999,1 hPa 0,0 l/m 0 min 0 min 57 W/m 40,6 km/h (6 Bft) 100,00 %
03.04.2018 18:22 16,2 C 15,6 C 14,4 C 65 % 0 lf 999,1 hPa 0,0 l/m 0 min 0 min 44 W/m 24,8 km/h (4 Bft) 100,00 %
03.04.2018 18:24 16,2 C 15,6 C 14,4 C 66 % 0 lf 999,1 hPa 0,0 l/m 0 min 0 min 42 W/m 20,3 km/h (4 Bft) 100,00 %
03.04.2018 18:26 16,1 C 15,6 C 14,4 C 66 % 0 lf 999,2 hPa 0,0 l/m 0 min 0 min 40 W/m 24,8 km/h (4 Bft) 97,87 %
03.04.2018 18:28 16,0 C 15,6 C 13,9 C 66 % 0 lf 999,1 hPa 0,0 l/m 0 min 0 min 45 W/m 24,8 km/h (4 Bft) 97,83 %
03.04.2018 18:30 15,9 C 15,6 C 13,9 C 66 % 0 lf 999,1 hPa 0,0 l/m 0 min 0 min 58 W/m 38,3 km/h (5 Bft) 100,00 %
03.04.2018 18:32 15,9 C 15,6 C 13,9 C 66 % 0 lf 999,2 hPa 0,0 l/m 0 min 0 min 60 W/m 18,0 km/h (3 Bft) 97,87 %
03.04.2018 18:34 15,8 C 15,6 C 13,9 C 67 % 0 lf 999,3 hPa 0,0 l/m 0 min 0 min 54 W/m 29,3 km/h (5 Bft) 97,87 %
03.04.2018 18:38 15,7 C 15,0 C 13,9 C 66 % 0 lf 999,2 hPa 0,0 l/m 0 min 0 min 51 W/m 45,1 km/h (6 Bft) 100,00 %
03.04.2018 18:40 15,7 C 15,0 C 13,9 C 67 % 0 lf 999,3 hPa 0,0 l/m 0 min 0 min 44 W/m 29,3 km/h (5 Bft) 100,00 %
03.04.2018 18:42 15,7 C 15,0 C 13,9 C 67 % 0 lf 999,2 hPa 0,0 l/m 0 min 0 min 39 W/m 31,5 km/h (5 Bft) 100,00 %
03.04.2018 18:44 15,6 C 15,0 C 13,9 C 68 % 0 lf 999,2 hPa 0,0 l/m 0 min 0 min 35 W/m 29,3 km/h (5 Bft) 95,74 %
03.04.2018 18:46 15,6 C 15,0 C 13,9 C 68 % 0 lf 999,2 hPa 0,0 l/m 0 min 0 min 27 W/m 33,8 km/h (5 Bft) 95,74 %
03.04.2018 18:48 15,5 C 15,0 C 13,3 C 68 % 0 lf 999,2 hPa 0,0 l/m 0 min 0 min 22 W/m 18,0 km/h (3 Bft) 97,87 %
03.04.2018 18:50 15,4 C 15,0 C 13,3 C 69 % 0 lf 999,3 hPa 0,0 l/m 0 min 0 min 22 W/m 29,3 km/h (5 Bft) 97,87 %
03.04.2018 18:52 15,4 C 15,0 C 13,3 C 69 % 0 lf 999,2 hPa 0,0 l/m 0 min 0 min 23 W/m 33,8 km/h (5 Bft) 97,83 %
03.04.2018 18:54 15,3 C 15,0 C 13,3 C 68 % 0 lf 999,2 hPa 0,0 l/m 0 min 0 min 25 W/m 31,5 km/h (5 Bft) 97,87 %
03.04.2018 18:56 15,3 C 15,0 C 13,3 C 69 % 0 lf 999,3 hPa 0,0 l/m 0 min 0 min 25 W/m 29,3 km/h (5 Bft) 97,87 %
03.04.2018 18:58 15,3 C 14,4 C 13,3 C 69 % 0 lf 999,2 hPa 0,0 l/m 0 min 0 min 23 W/m 20,3 km/h (4 Bft) 95,74 %
03.04.2018 19:00 15,2 C 14,4 C 13,3 C 69 % 0 lf 999,2 hPa 0,0 l/m 0 min 0 min 21 W/m 31,5 km/h (5 Bft) 97,87 %
03.04.2018 19:02 15,2 C 14,4 C 13,3 C 69 % 0 lf 999,2 hPa 0,0 l/m 0 min 0 min 20 W/m 22,5 km/h (4 Bft) 95,74 %
03.04.2018 19:04 15,2 C 14,4 C 13,3 C 70 % 0 lf 999,2 hPa 0,0 l/m 0 min 0 min 18 W/m 22,5 km/h (4 Bft) 95,65 %
03.04.2018 19:08 15,1 C 14,4 C 13,3 C 70 % 0 lf 999,1 hPa 0,0 l/m 0 min 0 min 15 W/m 31,5 km/h (5 Bft) 97,87 %
03.04.2018 19:10 15,1 C 14,4 C 13,3 C 70 % 0 lf 998,9 hPa 0,0 l/m 0 min 0 min 16 W/m 31,5 km/h (5 Bft) 97,87 %
03.04.2018 19:12 15,0 C 14,4 C 12,8 C 70 % 0 lf 999,0 hPa 0,0 l/m 0 min 0 min 16 W/m 27,0 km/h (4 Bft) 97,87 %
03.04.2018 19:14 15,0 C 14,4 C 12,8 C 70 % 0 lf 999,1 hPa 0,0 l/m 0 min 2 min 18 W/m 27,0 km/h (4 Bft) 97,87 %
03.04.2018 19:16 14,9 C 13,3 C 12,8 C 71 % 0 lf 999,1 hPa 0,0 l/m 0 min 2 min 22 W/m 29,3 km/h (5 Bft) 95,65 %
03.04.2018 19:18 14,9 C 12,8 C 11,7 C 72 % 0 lf 999,0 hPa 0,0 l/m 0 min 2 min 23 W/m 22,5 km/h (4 Bft) 95,74 %
03.04.2018 19:20 14,9 C 12,8 C 11,7 C 72 % 0 lf 999,2 hPa 0,0 l/m 0 min 2 min 23 W/m 24,8 km/h (4 Bft) 97,87 %
03.04.2018 19:22 14,8 C 12,8 C 11,1 C 73 % 0 lf 999,2 hPa 0,0 l/m 0 min 2 min 24 W/m 27,0 km/h (4 Bft) 95,74 %
03.04.2018 19:24 14,8 C 13,3 C 11,1 C 73 % 0 lf 999,2 hPa 0,0 l/m 0 min 2 min 23 W/m 33,8 km/h (5 Bft) 95,74 %
03.04.2018 19:26 14,7 C 13,3 C 11,1 C 74 % 0 lf 999,2 hPa 0,0 l/m 0 min 2 min 18 W/m 29,3 km/h (5 Bft) 97,87 %
03.04.2018 19:28 14,6 C 13,3 C 11,7 C 74 % 0 lf 999,2 hPa 0,0 l/m 0 min 2 min 15 W/m 31,5 km/h (5 Bft) 97,83 %
03.04.2018 19:30 14,6 C 13,3 C 11,7 C 74 % 0 lf 999,1 hPa 0,0 l/m 0 min 0 min 13 W/m 33,8 km/h (5 Bft) 97,87 %
03.04.2018 19:32 14,5 C 13,3 C 11,7 C 75 % 0 lf 999,1 hPa 0,0 l/m 0 min 0 min 13 W/m 20,3 km/h (4 Bft) 97,87 %
03.04.2018 19:34 14,4 C 13,3 C 11,7 C 75 % 0 lf 999,1 hPa 0,0 l/m 0 min 2 min 14 W/m 24,8 km/h (4 Bft) 95,74 %
03.04.2018 19:38 14,2 C 13,3 C 12,2 C 76 % 0 lf 999,0 hPa 0,0 l/m 0 min 0 min 12 W/m 24,8 km/h (4 Bft) 95,12 %
03.04.2018 19:40 14,2 C 13,3 C 12,2 C 76 % 0 lf 999,0 hPa 0,0 l/m 0 min 0 min 14 W/m 22,5 km/h (4 Bft) 100,00 %
03.04.2018 19:42 14,2 C 13,3 C 12,2 C 76 % 0 lf 998,9 hPa 0,0 l/m 0 min 0 min 18 W/m 31,5 km/h (5 Bft) 95,74 %
03.04.2018 19:44 14,2 C 13,3 C 12,2 C 76 % 0 lf 999,0 hPa 0,0 l/m 0 min 0 min 19 W/m 22,5 km/h (4 Bft) 97,87 %
03.04.2018 19:46 14,2 C 13,3 C 12,2 C 77 % 0 lf 999,1 hPa 0,0 l/m 0 min 0 min 15 W/m 18,0 km/h (3 Bft) 93,62 %
03.04.2018 19:48 14,2 C 13,3 C 11,7 C 77 % 0 lf 999,1 hPa 0,0 l/m 0 min 2 min 14 W/m 20,3 km/h (4 Bft) 97,87 %
03.04.2018 19:50 14,1 C 12,8 C 11,1 C 78 % 0 lf 999,2 hPa 0,0 l/m 0 min 0 min 12 W/m 27,0 km/h (4 Bft) 95,65 %
03.04.2018 19:52 14,0 C 12,8 C 11,1 C 78 % 0 lf 999,2 hPa 0,0 l/m 0 min 0 min 11 W/m 15,8 km/h (3 Bft) 95,74 %
03.04.2018 19:54 13,9 C 12,8 C 11,1 C 79 % 0 lf 999,1 hPa 0,0 l/m 0 min 0 min 9 W/m 22,5 km/h (4 Bft) 93,62 %
03.04.2018 19:56 13,9 C 12,8 C 11,1 C 79 % 0 lf 999,2 hPa 0,0 l/m 0 min 0 min 9 W/m 22,5 km/h (4 Bft) 91,49 %
03.04.2018 19:58 13,8 C 12,8 C 11,1 C 79 % 0 lf 999,2 hPa 0,0 l/m 0 min 0 min 11 W/m 22,5 km/h (4 Bft) 95,74 %
03.04.2018 20:00 13,7 C 12,8 C 11,1 C 80 % 0 lf 999,1 hPa 0,0 l/m 0 min 0 min 12 W/m 18,0 km/h (3 Bft) 93,62 %
03.04.2018 20:02 13,7 C 12,8 C 11,1 C 80 % 0 lf 999,2 hPa 0,0 l/m 0 min 0 min 12 W/m 24,8 km/h (4 Bft) 95,65 %
03.04.2018 20:04 13,6 C 12,8 C 11,1 C 80 % 0 lf 999,1 hPa 0,0 l/m 0 min 0 min 12 W/m 18,0 km/h (3 Bft) 95,74 %
03.04.2018 20:08 13,5 C 12,2 C 11,1 C 81 % 0 lf 999,2 hPa 0,0 l/m 0 min 0 min 12 W/m 15,8 km/h (3 Bft) 92,55 %
03.04.2018 20:10 13,4 C 12,2 C 11,1 C 81 % 0 lf 999,2 hPa 0,0 l/m 0 min 0 min 11 W/m 18,0 km/h (3 Bft) 93,62 %
03.04.2018 20:12 13,3 C 12,2 C 11,1 C 82 % 0 lf 999,2 hPa 0,0 l/m 0 min 0 min 9 W/m 18,0 km/h (3 Bft) 91,49 %
03.04.2018 20:14 13,3 C 12,2 C 11,1 C 82 % 0 lf 999,1 hPa 0,0 l/m 0 min 0 min 6 W/m 13,5 km/h (3 Bft) 93,48 %
03.04.2018 20:16 13,2 C 12,2 C 11,1 C 82 % 0 lf 999,2 hPa 0,0 l/m 0 min 0 min 2 W/m 18,0 km/h (3 Bft) 93,62 %
03.04.2018 20:18 13,2 C 12,2 C 11,1 C 82 % 0 lf 999,1 hPa 0,0 l/m 0 min 0 min 0 W/m 20,3 km/h (4 Bft) 95,74 %
03.04.2018 20:20 13,1 C 12,2 C 11,1 C 83 % 0 lf 999,2 hPa 0,0 l/m 0 min 0 min 0 W/m 20,3 km/h (4 Bft) 93,62 %
03.04.2018 20:22 13,1 C 12,2 C 10,6 C 83 % 0 lf 999,1 hPa 0,0 l/m 0 min 0 min 0 W/m 18,0 km/h (3 Bft) 95,74 %
03.04.2018 20:24 13,0 C 12,2 C 10,6 C 83 % 0 lf 999,2 hPa 0,0 l/m 0 min 0 min 0 W/m 20,3 km/h (4 Bft) 95,74 %
03.04.2018 20:26 12,9 C 12,2 C 10,6 C 83 % 0 lf 999,2 hPa 0,0 l/m 0 min 0 min 0 W/m 13,5 km/h (3 Bft) 93,33 %
03.04.2018 20:28 12,9 C 12,2 C 10,6 C 83 % 0 lf 999,2 hPa 0,0 l/m 0 min 0 min 0 W/m 13,5 km/h (3 Bft) 93,62 %
03.04.2018 20:30 12,8 C 12,2 C 10,6 C 83 % 0 lf 999,2 hPa 0,0 l/m 0 min 0 min 0 W/m 13,5 km/h (3 Bft) 93,62 %
03.04.2018 20:32 12,8 C 12,2 C 10,6 C 84 % 0 lf 999,2 hPa 0,0 l/m 0 min 0 min 0 W/m 13,5 km/h (3 Bft) 93,62 %
03.04.2018 20:34 12,8 C 12,2 C 10,6 C 83 % 0 lf 999,2 hPa 0,0 l/m 0 min 0 min 0 W/m 13,5 km/h (3 Bft) 95,74 %
03.04.2018 20:38 12,7 C 11,7 C 10,6 C 84 % 0 lf 999,1 hPa 0,0 l/m 0 min 0 min 0 W/m 15,8 km/h (3 Bft) 94,62 %
03.04.2018 20:40 12,7 C 11,7 C 10,6 C 84 % 0 lf 999,1 hPa 0,0 l/m 0 min 0 min 0 W/m 11,3 km/h (2 Bft) 97,87 %
03.04.2018 20:42 12,6 C 11,7 C 10,0 C 84 % 0 lf 999,1 hPa 0,0 l/m 0 min 0 min 0 W/m 11,3 km/h (2 Bft) 95,74 %
03.04.2018 20:44 12,6 C 11,7 C 10,0 C 84 % 0 lf 999,1 hPa 0,0 l/m 0 min 0 min 0 W/m 13,5 km/h (3 Bft) 95,74 %
03.04.2018 20:46 12,5 C 11,7 C 10,0 C 84 % 0 lf 999,2 hPa 0,0 l/m 0 min 0 min 0 W/m 20,3 km/h (4 Bft) 93,62 %
03.04.2018 20:48 12,4 C 11,7 C 10,0 C 84 % 0 lf 999,1 hPa 0,0 l/m 0 min 0 min 0 W/m 18,0 km/h (3 Bft) 91,49 %
03.04.2018 20:50 12,4 C 11,7 C 10,0 C 84 % 0 lf 999,1 hPa 0,0 l/m 0 min 0 min 0 W/m 18,0 km/h (3 Bft) 95,65 %
03.04.2018 20:52 12,4 C 11,7 C 10,0 C 84 % 0 lf 999,2 hPa 0,0 l/m 0 min 0 min 0 W/m 24,8 km/h (4 Bft) 95,74 %
03.04.2018 20:54 12,4 C 11,7 C 10,0 C 84 % 0 lf 999,1 hPa 0,0 l/m 0 min 0 min 0 W/m 13,5 km/h (3 Bft) 91,49 %
03.04.2018 20:56 12,3 C 11,7 C 10,0 C 84 % 0 lf 999,1 hPa 0,0 l/m 0 min 0 min 0 W/m 15,8 km/h (3 Bft) 95,74 %
03.04.2018 20:58 12,3 C 11,7 C 10,0 C 84 % 0 lf 999,0 hPa 0,0 l/m 0 min 0 min 0 W/m 15,8 km/h (3 Bft) 95,74 %
03.04.2018 21:00 12,3 C 11,7 C 10,0 C 84 % 0 lf 999,0 hPa 0,0 l/m 0 min 0 min 0 W/m 13,5 km/h (3 Bft) 97,83 %
03.04.2018 21:02 12,2 C 11,7 C 10,0 C 84 % 0 lf 999,1 hPa 0,0 l/m 0 min 0 min 0 W/m 13,5 km/h (3 Bft) 97,87 %
03.04.2018 21:04 12,2 C 11,7 C 10,0 C 84 % 0 lf 999,1 hPa 0,0 l/m 0 min 0 min 0 W/m 20,3 km/h (4 Bft) 91,49 %
03.04.2018 21:08 12,2 C 11,7 C 10,0 C 84 % 0 lf 999,0 hPa 0,0 l/m 0 min 0 min 0 W/m 15,8 km/h (3 Bft) 96,34 %
03.04.2018 21:10 12,2 C 11,7 C 10,0 C 84 % 0 lf 999,0 hPa 0,0 l/m 0 min 0 min 0 W/m 13,5 km/h (3 Bft) 96,61 %
03.04.2018 21:12 12,1 C 11,7 C 10,0 C 84 % 0 lf 999,0 hPa 0,0 l/m 0 min 0 min 0 W/m 15,8 km/h (3 Bft) 97,83 %
03.04.2018 21:14 12,1 C 11,7 C 10,0 C 84 % 0 lf 999,0 hPa 0,0 l/m 0 min 0 min 0 W/m 15,8 km/h (3 Bft) 97,87 %
03.04.2018 21:16 12,1 C 11,7 C 10,0 C 84 % 0 lf 999,0 hPa 0,0 l/m 0 min 0 min 0 W/m 15,8 km/h (3 Bft) 95,74 %
03.04.2018 21:18 12,1 C 11,7 C 10,0 C 84 % 0 lf 998,9 hPa 0,0 l/m 0 min 0 min 0 W/m 11,3 km/h (2 Bft) 100,00 %
03.04.2018 21:20 12,1 C 11,7 C 10,0 C 84 % 0 lf 998,8 hPa 0,0 l/m 0 min 0 min 0 W/m 11,3 km/h (2 Bft) 100,00 %
03.04.2018 21:22 12,1 C 11,7 C 10,0 C 84 % 0 lf 998,9 hPa 0,0 l/m 0 min 0 min 0 W/m 15,8 km/h (3 Bft) 100,00 %
03.04.2018 21:24 12,1 C 11,7 C 10,0 C 84 % 0 lf 998,8 hPa 0,0 l/m 0 min 0 min 0 W/m 13,5 km/h (3 Bft) 100,00 %
03.04.2018 21:26 12,1 C 11,7 C 10,6 C 84 % 0 lf 998,8 hPa 0,0 l/m 0 min 0 min 0 W/m 13,5 km/h (3 Bft) 100,00 %
03.04.2018 21:28 12,1 C 11,7 C 10,0 C 84 % 0 lf 998,8 hPa 0,0 l/m 0 min 0 min 0 W/m 13,5 km/h (3 Bft) 97,87 %
03.04.2018 21:30 12,1 C 11,7 C 10,6 C 84 % 0 lf 998,8 hPa 0,0 l/m 0 min 0 min 0 W/m 13,5 km/h (3 Bft) 100,00 %
03.04.2018 21:32 12,1 C 12,2 C 10,0 C 84 % 0 lf 998,8 hPa 0,0 l/m 0 min 0 min 0 W/m 15,8 km/h (3 Bft) 100,00 %
03.04.2018 21:34 12,1 C 12,2 C 10,0 C 84 % 0 lf 998,8 hPa 0,0 l/m 0 min 0 min 0 W/m 13,5 km/h (3 Bft) 100,00 %
03.04.2018 21:36 12,1 C 12,2 C 10,0 C 84 % 0 lf 998,8 hPa 0,0 l/m 0 min 0 min 0 W/m 15,8 km/h (3 Bft) 100,00 %
03.04.2018 21:38 12,1 C 12,2 C 10,0 C 83 % 0 lf 998,8 hPa 0,0 l/m 0 min 0 min 0 W/m 15,8 km/h (3 Bft) 97,87 %
03.04.2018 21:40 12,1 C 11,7 C 10,0 C 83 % 0 lf 998,8 hPa 0,0 l/m 0 min 0 min 0 W/m 13,5 km/h (3 Bft) 97,87 %
03.04.2018 21:42 12,1 C 12,2 C 10,0 C 83 % 0 lf 998,8 hPa 0,0 l/m 0 min 0 min 0 W/m 18,0 km/h (3 Bft) 100,00 %
03.04.2018 21:44 12,1 C 12,2 C 10,0 C 83 % 0 lf 998,8 hPa 0,0 l/m 0 min 0 min 0 W/m 15,8 km/h (3 Bft) 97,87 %
03.04.2018 21:46 12,2 C 11,7 C 10,0 C 83 % 0 lf 998,8 hPa 0,0 l/m 0 min 0 min 0 W/m 15,8 km/h (3 Bft) 97,87 %
03.04.2018 21:48 12,2 C 11,7 C 10,0 C 83 % 0 lf 998,8 hPa 0,0 l/m 0 min 0 min 0 W/m 13,5 km/h (3 Bft) 100,00 %
03.04.2018 21:50 12,2 C 11,7 C 10,0 C 83 % 0 lf 998,8 hPa 0,0 l/m 0 min 0 min 0 W/m 20,3 km/h (4 Bft) 100,00 %
03.04.2018 21:52 12,2 C 11,7 C 10,0 C 82 % 0 lf 998,8 hPa 0,0 l/m 0 min 0 min 0 W/m 15,8 km/h (3 Bft) 97,87 %
03.04.2018 21:54 12,2 C 12,2 C 10,0 C 82 % 0 lf 998,7 hPa 0,0 l/m 0 min 0 min 0 W/m 18,0 km/h (3 Bft) 97,87 %
03.04.2018 21:56 12,2 C 12,2 C 10,0 C 82 % 0 lf 998,7 hPa 0,0 l/m 0 min 0 min 0 W/m 18,0 km/h (3 Bft) 100,00 %
03.04.2018 21:58 12,2 C 12,2 C 10,0 C 82 % 0 lf 998,7 hPa 0,0 l/m 0 min 0 min 0 W/m 11,3 km/h (2 Bft) 97,87 %
03.04.2018 22:00 12,2 C 12,2 C 10,6 C 82 % 0 lf 998,7 hPa 0,0 l/m 0 min 0 min 0 W/m 22,5 km/h (4 Bft) 100,00 %
03.04.2018 22:02 12,2 C 12,2 C 10,6 C 82 % 0 lf 998,7 hPa 0,0 l/m 0 min 0 min 0 W/m 22,5 km/h (4 Bft) 97,87 %
03.04.2018 22:04 12,2 C 12,2 C 10,6 C 82 % 0 lf 998,7 hPa 0,0 l/m 0 min 0 min 0 W/m 22,5 km/h (4 Bft) 97,87 %
03.04.2018 22:08 12,3 C 12,2 C 10,6 C 82 % 0 lf 998,7 hPa 0,0 l/m 0 min 0 min 0 W/m 20,3 km/h (4 Bft) 100,00 %
03.04.2018 22:10 12,3 C 12,2 C 10,6 C 82 % 0 lf 998,7 hPa 0,0 l/m 0 min 0 min 0 W/m 18,0 km/h (3 Bft) 100,00 %
03.04.2018 22:12 12,3 C 12,2 C 10,6 C 82 % 0 lf 998,8 hPa 0,0 l/m 0 min 0 min 0 W/m 18,0 km/h (3 Bft) 95,65 %
03.04.2018 22:14 12,3 C 12,2 C 10,6 C 82 % 0 lf 998,8 hPa 0,0 l/m 0 min 0 min 0 W/m 13,5 km/h (3 Bft) 100,00 %
03.04.2018 22:16 12,3 C 12,2 C 10,6 C 82 % 0 lf 998,7 hPa 0,0 l/m 0 min 0 min 0 W/m 18,0 km/h (3 Bft) 97,87 %
03.04.2018 22:18 12,3 C 12,2 C 10,6 C 82 % 0 lf 998,7 hPa 0,0 l/m 0 min 0 min 0 W/m 20,3 km/h (4 Bft) 100,00 %
03.04.2018 22:20 12,4 C 12,2 C 10,6 C 82 % 0 lf 998,7 hPa 0,0 l/m 0 min 0 min 0 W/m 20,3 km/h (4 Bft) 100,00 %
03.04.2018 22:22 12,4 C 12,2 C 10,6 C 82 % 0 lf 998,7 hPa 0,0 l/m 0 min 0 min 0 W/m 20,3 km/h (4 Bft) 97,87 %
03.04.2018 22:24 12,4 C 12,2 C 10,6 C 81 % 0 lf 998,7 hPa 0,0 l/m 0 min 0 min 0 W/m 20,3 km/h (4 Bft) 100,00 %
03.04.2018 22:26 12,4 C 12,2 C 10,6 C 81 % 0 lf 998,7 hPa 0,0 l/m 0 min 0 min 0 W/m 18,0 km/h (3 Bft) 95,74 %
03.04.2018 22:28 12,4 C 12,2 C 10,6 C 81 % 0 lf 998,7 hPa 0,0 l/m 0 min 0 min 0 W/m 20,3 km/h (4 Bft) 97,87 %
03.04.2018 22:30 12,4 C 12,2 C 10,6 C 81 % 0 lf 998,6 hPa 0,0 l/m 0 min 0 min 0 W/m 18,0 km/h (3 Bft) 100,00 %
03.04.2018 22:32 12,4 C 12,2 C 10,6 C 81 % 0 lf 998,5 hPa 0,0 l/m 0 min 0 min 0 W/m 18,0 km/h (3 Bft) 97,87 %
03.04.2018 22:34 12,4 C 12,2 C 10,6 C 81 % 0 lf 998,5 hPa 0,0 l/m 0 min 0 min 0 W/m 22,5 km/h (4 Bft) 100,00 %
03.04.2018 22:38 12,4 C 12,2 C 10,6 C 81 % 0 lf 998,4 hPa 0,0 l/m 0 min 0 min 0 W/m 18,0 km/h (3 Bft) 100,00 %
03.04.2018 22:40 12,4 C 12,2 C 10,6 C 81 % 0 lf 998,3 hPa 0,0 l/m 0 min 2 min 0 W/m 15,8 km/h (3 Bft) 98,31 %
03.04.2018 22:42 12,4 C 12,2 C 10,6 C 80 % 0 lf 998,2 hPa 0,0 l/m 0 min 0 min 0 W/m 15,8 km/h (3 Bft) 93,62 %
03.04.2018 22:44 12,5 C 12,2 C 10,6 C 80 % 0 lf 998,2 hPa 0,0 l/m 0 min 0 min 0 W/m 13,5 km/h (3 Bft) 95,74 %
03.04.2018 22:46 12,4 C 12,2 C 10,6 C 80 % 0 lf 998,3 hPa 0,0 l/m 0 min 0 min 0 W/m 18,0 km/h (3 Bft) 97,83 %
03.04.2018 22:48 12,5 C 12,2 C 10,6 C 80 % 0 lf 998,3 hPa 0,0 l/m 0 min 0 min 0 W/m 22,5 km/h (4 Bft) 95,74 %
03.04.2018 22:50 12,5 C 12,2 C 10,6 C 80 % 0 lf 998,3 hPa 0,0 l/m 0 min 0 min 0 W/m 24,8 km/h (4 Bft) 91,49 %
03.04.2018 22:52 12,5 C 12,2 C 10,6 C 80 % 1 lf 998,3 hPa 0,0 l/m 0 min 2 min 0 W/m 15,8 km/h (3 Bft) 91,49 %
03.04.2018 22:54 12,5 C 12,2 C 10,0 C 80 % 1 lf 998,3 hPa 0,0 l/m 0 min 2 min 0 W/m 15,8 km/h (3 Bft) 87,23 %
03.04.2018 22:56 12,5 C 12,2 C 10,0 C 80 % 0 lf 998,4 hPa 0,0 l/m 0 min 2 min 0 W/m 18,0 km/h (3 Bft) 87,23 %
03.04.2018 22:58 12,5 C 11,7 C 10,0 C 81 % 0 lf 998,4 hPa 0,0 l/m 0 min 2 min 0 W/m 20,3 km/h (4 Bft) 93,48 %
03.04.2018 23:00 12,5 C 12,2 C 10,0 C 81 % 0 lf 998,3 hPa 0,0 l/m 0 min 0 min 0 W/m 22,5 km/h (4 Bft) 91,49 %
03.04.2018 23:02 12,5 C 12,2 C 10,0 C 81 % 0 lf 998,4 hPa 0,0 l/m 0 min 0 min 0 W/m 18,0 km/h (3 Bft) 91,49 %
03.04.2018 23:04 12,4 C 12,2 C 10,0 C 81 % 0 lf 998,4 hPa 0,0 l/m 0 min 0 min 0 W/m 20,3 km/h (4 Bft) 89,36 %
03.04.2018 23:08 12,4 C 12,2 C 10,0 C 80 % 0 lf 998,5 hPa 0,0 l/m 0 min 0 min 0 W/m 29,3 km/h (5 Bft) 90,24 %
03.04.2018 23:10 12,4 C 12,2 C 10,0 C 80 % 0 lf 998,4 hPa 0,0 l/m 0 min 0 min 0 W/m 24,8 km/h (4 Bft) 91,38 %
03.04.2018 23:12 12,4 C 12,2 C 10,0 C 80 % 0 lf 998,4 hPa 0,0 l/m 0 min 0 min 0 W/m 22,5 km/h (4 Bft) 91,49 %
03.04.2018 23:14 12,4 C 12,2 C 10,0 C 79 % 0 lf 998,4 hPa 0,0 l/m 0 min 0 min 0 W/m 20,3 km/h (4 Bft) 89,36 %
03.04.2018 23:16 12,4 C 12,2 C 10,0 C 79 % 0 lf 998,5 hPa 0,0 l/m 0 min 0 min 0 W/m 20,3 km/h (4 Bft) 93,62 %
03.04.2018 23:18 12,4 C 12,2 C 10,0 C 79 % 0 lf 998,6 hPa 0,0 l/m 0 min 0 min 0 W/m 20,3 km/h (4 Bft) 93,62 %
03.04.2018 23:20 12,4 C 12,2 C 10,0 C 78 % 0 lf 998,6 hPa 0,0 l/m 0 min 0 min 0 W/m 27,0 km/h (4 Bft) 93,62 %
03.04.2018 23:22 12,4 C 12,8 C 10,6 C 78 % 0 lf 998,6 hPa 0,0 l/m 0 min 0 min 0 W/m 29,3 km/h (5 Bft) 93,48 %
03.04.2018 23:24 12,5 C 12,8 C 10,6 C 78 % 0 lf 998,6 hPa 0,0 l/m 0 min 0 min 0 W/m 27,0 km/h (4 Bft) 89,36 %
03.04.2018 23:26 12,6 C 12,8 C 10,6 C 77 % 0 lf 998,5 hPa 0,0 l/m 0 min 0 min 0 W/m 27,0 km/h (4 Bft) 95,74 %
03.04.2018 23:28 12,6 C 12,8 C 10,6 C 77 % 0 lf 998,5 hPa 0,0 l/m 0 min 0 min 0 W/m 33,8 km/h (5 Bft) 93,62 %
03.04.2018 23:30 12,6 C 12,8 C 10,6 C 77 % 0 lf 998,7 hPa 0,0 l/m 0 min 0 min 0 W/m 22,5 km/h (4 Bft) 91,49 %
03.04.2018 23:32 12,7 C 12,8 C 10,6 C 76 % 0 lf 998,6 hPa 0,0 l/m 0 min 0 min 0 W/m 20,3 km/h (4 Bft) 93,62 %
03.04.2018 23:34 12,7 C 12,8 C 10,6 C 76 % 0 lf 998,6 hPa 0,0 l/m 0 min 0 min 0 W/m 29,3 km/h (5 Bft) 97,83 %
03.04.2018 23:36 12,7 C 12,8 C 10,6 C 76 % 0 lf 998,6 hPa 0,0 l/m 0 min 0 min 0 W/m 27,0 km/h (4 Bft) 95,74 %
03.04.2018 23:38 12,8 C 12,8 C 10,6 C 76 % 0 lf 998,7 hPa 0,0 l/m 0 min 0 min 0 W/m 22,5 km/h (4 Bft) 97,87 %
03.04.2018 23:40 12,8 C 12,8 C 10,6 C 76 % 0 lf 998,7 hPa 0,0 l/m 0 min 0 min 0 W/m 22,5 km/h (4 Bft) 97,87 %
03.04.2018 23:42 12,8 C 12,8 C 10,6 C 76 % 0 lf 998,7 hPa 0,0 l/m 0 min 0 min 0 W/m 24,8 km/h (4 Bft) 97,87 %
03.04.2018 23:44 12,8 C 12,8 C 10,6 C 75 % 0 lf 998,7 hPa 0,0 l/m 0 min 0 min 0 W/m 18,0 km/h (3 Bft) 97,87 %
03.04.2018 23:46 12,8 C 12,8 C 10,6 C 75 % 0 lf 998,7 hPa 0,0 l/m 0 min 0 min 0 W/m 20,3 km/h (4 Bft) 97,83 %
03.04.2018 23:48 12,8 C 12,8 C 10,6 C 75 % 0 lf 998,8 hPa 0,0 l/m 0 min 0 min 0 W/m 22,5 km/h (4 Bft) 95,74 %
03.04.2018 23:50 12,9 C 12,8 C 11,1 C 75 % 0 lf 998,8 hPa 0,0 l/m 0 min 0 min 0 W/m 18,0 km/h (3 Bft) 95,74 %
03.04.2018 23:52 12,9 C 12,8 C 11,1 C 75 % 0 lf 998,8 hPa 0,0 l/m 0 min 0 min 0 W/m 20,3 km/h (4 Bft) 100,00 %
03.04.2018 23:54 12,9 C 12,8 C 11,1 C 75 % 0 lf 999,0 hPa 0,0 l/m 0 min 0 min 0 W/m 20,3 km/h (4 Bft) 100,00 %
03.04.2018 23:56 12,9 C 12,8 C 11,1 C 75 % 0 lf 999,0 hPa 0,0 l/m 0 min 0 min 0 W/m 29,3 km/h (5 Bft) 100,00 %
03.04.2018 23:58 12,9 C 12,8 C 11,1 C 75 % 0 lf 999,1 hPa 0,0 l/m 0 min 0 min 0 W/m 18,0 km/h (3 Bft) 97,87 %
_ Min-Zeit 00:22 00:00 00:00 17:08 00:00 22:42 - - - - 07:28 00:02
Minimum _ 9,4 C 7,8 C 7,2 C 61 % 0 lf 998,2 hPa - - - - 4,5 km/h (1 Bft) 14,29 %
_ Max-Zeit 17:08 16:20 16:18 05:34 03:20 13:52 01:42 09:38 00:08 16:22 17:34 00:24
Maximum _ 17,8 C 22,2 C 18,3 C 93 % 15 lf 1000,6 hPa 0,2 l/m 4 min 4 min 721 W/m 49,6 km/h
S (6 Bft)
100,00 %
Durchschnitt _ 12,8 C 13,1 C 11,4 C 80 % 1 lf 999,5 hPa #0,4 l/m #3:52 h #3:44 h 191 W/m 20,7 km/h (4 Bft) 96,25 %
© 2018 W. Hausmann